GFSSE_925_thetae_045.txt.gz
Theta_e
345 348 343 347 351 349 344 351 345 349 349 349 347 344 346 347 350 347 347 346 347 351 351 345 346 346 347 347 346 349 347 346 350 346 342 345 346 347 347 343 341 341 341
343 346 347 349 351 349 345 350 349 348 347 345 345 342 348 349 347 346 347 347 346 346 350 346 345 345 346 347 348 348 349 348 343 341 344 343 344 346 345 343 342 341 340
342 347 348 346 349 346 347 350 346 345 344 344 344 344 339 345 344 343 346 345 347 347 348 345 345 345 346 346 345 347 347 343 341 345 345 347 348 347 346 346 344 342 341
341 345 350 343 347 347 348 347 345 344 344 344 343 343 333 339 340 342 342 342 344 345 345 345 346 347 344 346 347 346 346 341 341 345 347 346 347 345 345 346 345 344 342
342 343 350 340 347 346 346 345 345 345 344 344 343 341 328 337 335 341 340 341 341 341 342 344 344 345 344 346 345 345 340 340 344 344 345 346 346 344 342 346 345 340 340
342 343 347 343 347 347 347 346 345 345 343 343 342 335 337 341 330 339 341 340 339 339 341 341 344 345 344 344 344 344 341 341 345 341 344 345 346 342 340 339 341 342 343
342 343 345 343 349 348 347 347 346 345 344 343 337 333 338 340 333 338 338 337 336 338 340 340 342 344 345 343 345 345 341 341 344 340 338 341 343 340 339 339 340 342 342
342 342 345 341 344 347 347 347 345 345 344 342 338 336 336 339 337 329 326 330 332 332 336 334 341 344 344 342 344 343 342 340 342 338 338 338 335 335 342 338 337 338 342
343 343 343 346 349 345 346 345 345 344 344 343 341 339 336 335 336 333 328 324 325 327 327 331 339 340 343 340 343 342 342 338 341 339 337 339 331 342 342 339 337 337 339
345 345 343 342 344 350 350 348 347 343 344 343 343 340 336 332 330 327 326 331 323 326 326 326 337 338 340 340 341 341 341 340 339 338 337 338 331 338 338 340 340 337 338
344 345 344 342 342 347 349 350 349 347 344 343 342 341 339 337 336 334 333 330 322 316 320 320 332 336 335 337 336 335 337 341 340 336 336 337 334 335 333 333 336 338 339
331 331 331 334 340 346 348 348 348 348 349 347 345 343 342 338 337 333 330 325 320 317 313 314 311 327 332 331 337 334 334 337 339 338 336 336 336 333 331 329 330 334 336
325 325 325 328 332 335 346 348 348 349 346 347 345 343 342 340 338 336 333 332 331 330 329 327 326 322 321 323 325 327 329 331 334 334 334 335 335 333 332 330 329 331 335
320 320 321 323 328 336 336 348 346 345 345 344 345 344 344 343 341 339 335 332 328 327 325 323 322 321 321 319 319 322 324 328 330 331 333 334 333 333 332 329 325 329 331
315 315 316 318 322 327 334 341 342 341 341 343 344 344 342 342 341 341 340 336 332 328 325 323 320 319 318 317 316 316 318 322 327 329 331 332 331 331 331 329 322 328 329
311 311 310 311 313 317 320 323 326 330 334 334 336 338 339 341 342 341 340 340 338 333 328 325 321 318 317 315 315 314 314 316 321 324 326 328 326 326 325 328 327 327 330
310 309 309 308 309 309 310 312 313 315 318 321 322 324 324 327 331 335 337 337 337 338 334 328 323 319 317 316 314 313 313 313 316 319 322 322 323 319 317 324 324 323 325
310 309 309 309 309 309 309 309 309 310 310 311 312 314 315 316 318 322 330 331 332 333 333 330 326 322 319 317 316 314 313 312 312 315 317 319 318 318 316 311 319 320 321
309 309 309 309 308 308 309 308 308 308 308 308 309 309 308 310 311 312 316 320 326 327 328 330 330 327 322 319 317 316 315 313 312 312 314 315 316 315 315 316 310 313 318
308 308 308 308 308 308 308 308 308 308 307 307 307 307 307 308 309 310 310 312 315 319 324 324 326 329 328 321 319 318 316 314 313 312 312 313 314 314 313 314 315 311 311
308 308 307 307 307 307 307 307 306 306 306 307 307 307 307 307 307 307 309 309 310 311 314 319 321 324 325 327 321 319 318 316 315 313 312 312 312 313 314 313 315 314 313
308 308 307 307 306 306 306 306 306 306 305 306 306 306 306 306 306 306 307 308 309 309 310 312 315 319 321 322 324 321 320 320 317 316 314 313 312 312 313 314 314 314 313
308 308 307 307 306 306 306 306 305 305 305 305 306 306 306 306 305 305 306 307 307 307 308 309 311 313 318 319 319 320 321 320 322 319 317 314 313 312 312 312 313 313 312
308 308 307 307 306 306 305 305 305 305 305 305 305 305 305 305 305 305 305 306 306 306 306 306 307 309 311 315 316 316 317 315 319 323 319 317 315 314 313 312 312 312 312
307 307 307 307 306 305 304 304 303 303 304 304 304 304 304 305 305 305 305 305 305 305 305 305 305 306 308 309 312 314 316 315 314 314 314 318 315 314 313 312 311 312 311
307 307 307 306 304 304 303 303 302 303 303 303 303 303 304 304 305 304 304 305 305 305 305 304 305 306 306 308 309 311 313 314 312 313 313 313 314 313 311 312 311 311 311

GFSSE_925_thetae_048.txt.gz
Theta_e
350 339 343 346 352 342 346 347 351 348 347 346 344 347 349 348 348 349 349 349 347 350 347 346 346 347 346 347 349 348 347 347 337 339 343 343 346 347 345 342 341 340 339
348 346 344 349 350 345 348 350 348 346 345 342 342 344 348 348 348 348 348 348 348 349 348 346 344 345 346 347 345 348 348 341 342 343 343 342 343 345 343 341 342 341 339
346 346 348 345 347 344 350 347 345 344 343 343 342 336 335 343 342 344 347 347 347 347 347 348 348 345 345 344 344 344 340 340 345 343 345 344 343 344 346 345 343 342 339
346 346 347 345 345 349 347 345 344 343 344 344 343 337 331 337 339 344 344 342 346 343 344 343 346 346 346 346 343 342 339 339 344 346 346 346 346 346 346 345 345 343 340
343 350 347 345 345 346 345 344 344 345 344 344 342 338 334 340 332 341 342 343 342 341 341 343 344 344 343 346 345 339 339 343 344 343 343 343 345 343 345 346 343 340 340
343 348 341 343 345 347 346 346 345 344 342 341 339 331 338 339 329 339 341 339 338 339 341 341 343 344 343 343 343 342 339 344 341 340 341 344 341 341 340 339 341 342 341
345 345 331 340 345 345 345 346 345 344 344 341 334 330 335 338 330 333 335 333 333 333 339 338 340 344 344 342 343 342 339 343 339 338 338 341 337 338 341 341 342 342 342
341 345 340 333 337 343 344 345 344 343 343 343 337 332 328 335 331 322 317 319 323 327 328 332 337 344 344 342 343 342 341 340 341 339 337 338 336 333 343 339 338 341 342
342 342 344 344 342 347 344 344 342 340 343 343 341 338 332 329 326 320 315 314 313 313 319 320 338 340 343 341 343 340 341 338 340 340 339 338 332 338 343 340 337 338 340
343 341 341 346 347 348 347 348 348 345 341 343 340 337 336 332 329 334 331 328 328 315 312 312 331 337 338 340 341 340 340 340 337 339 337 337 333 334 342 341 340 339 337
334 332 331 335 336 345 349 350 348 348 346 344 343 341 341 337 338 335 334 333 329 319 312 312 314 332 334 336 337 336 335 337 341 339 337 337 335 330 335 334 337 340 340
327 327 326 328 331 335 346 345 347 345 345 346 345 344 343 341 339 335 333 331 328 326 316 314 315 312 325 330 328 334 334 329 339 339 337 336 335 334 331 330 329 334 337
322 321 322 326 330 337 340 346 345 345 345 346 344 344 343 342 341 338 336 334 331 329 328 327 326 324 316 322 326 334 333 329 333 333 335 335 335 334 333 330 329 329 334
317 316 317 321 326 332 338 341 340 342 342 343 343 344 342 342 341 341 341 336 332 329 327 326 324 323 322 321 320 321 323 325 329 331 334 333 333 332 332 331 329 329 333
312 311 311 312 316 319 321 326 327 328 329 327 332 336 339 340 341 341 340 339 339 333 330 327 325 322 320 319 318 317 317 319 324 328 330 332 333 332 331 332 329 329 330
310 309 309 309 310 310 311 312 313 315 317 319 320 323 319 321 326 332 336 339 339 338 337 335 328 324 320 318 317 316 315 315 316 323 327 329 329 328 327 331 329 327 329
310 309 309 309 309 309 309 309 310 309 310 310 311 312 312 312 315 316 319 323 329 333 336 336 334 327 323 319 317 316 314 314 314 315 322 325 326 324 322 326 329 327 327
310 310 309 309 309 309 309 309 309 308 308 308 308 309 308 308 310 311 311 314 320 325 323 327 332 333 329 324 319 317 316 314 313 313 316 320 322 321 320 317 324 325 324
309 309 309 308 308 308 308 308 307 307 307 307 307 307 307 307 307 308 309 310 311 313 321 322 322 326 330 329 325 320 318 316 314 312 312 316 319 320 319 317 313 316 322
308 308 308 308 307 307 307 307 307 306 306 306 306 306 306 307 306 307 307 308 309 310 311 315 322 320 322 324 326 326 320 318 316 314 312 313 315 317 316 315 315 313 312
308 308 308 307 307 306 306 306 306 306 306 306 305 305 306 306 306 306 306 306 308 309 309 310 311 316 320 320 322 325 325 321 319 316 313 312 313 314 314 314 314 315 313
309 309 308 307 307 306 306 306 306 306 305 305 305 306 306 306 305 306 305 305 306 307 308 308 309 311 313 318 320 321 323 322 320 318 316 313 312 313 314 313 312 315 314
309 309 308 307 307 306 306 305 305 304 304 304 305 305 304 305 305 305 306 306 306 306 306 307 306 307 310 311 317 318 320 319 315 319 319 316 313 312 313 313 313 313 315
308 307 308 307 307 307 305 304 304 304 304 304 304 304 304 304 304 304 305 305 305 305 306 305 305 306 306 309 313 315 316 317 316 317 317 317 316 313 312 312 313 313 314
307 307 308 308 307 306 304 304 303 303 303 303 303 303 303 303 303 304 304 304 304 305 305 306 305 305 305 305 306 309 315 315 316 316 318 317 316 315 313 313 312 313 313
307 307 307 307 306 304 304 303 303 302 302 302 302 302 302 302 303 303 304 303 304 304 305 305 305 305 304 305 306 306 309 314 313 312 313 314 314 315 315 313 313 312 312

GFSSE_925_thetae_051.txt.gz
Theta_e
347 337 343 351 342 345 350 350 349 346 344 344 346 347 348 348 348 349 348 349 349 345 346 346 350 346 346 350 350 347 347 345 346 347 345 345 346 345 343 342 340 339 339
343 338 344 350 347 344 350 349 348 345 342 340 343 345 347 346 347 348 347 348 348 347 347 343 343 346 347 345 348 348 347 344 343 342 343 343 343 345 344 343 342 339 339
342 336 346 350 343 347 350 346 347 346 345 342 342 339 342 344 346 346 346 346 346 348 347 348 345 345 343 343 343 341 344 345 343 344 343 343 342 345 345 344 342 340 338
345 337 338 342 345 347 345 345 340 345 345 344 340 337 338 340 344 345 345 345 345 345 346 346 345 344 346 341 338 339 340 343 345 346 346 345 346 344 346 344 343 340 339
346 348 336 341 345 346 344 343 343 343 342 342 340 333 337 338 337 343 343 343 342 343 342 343 345 344 344 344 340 337 340 344 345 344 343 344 339 344 345 342 341 339 336
349 347 339 339 345 345 345 344 341 342 342 336 331 326 337 336 329 337 338 338 337 337 340 340 342 343 344 343 341 339 341 341 340 339 338 341 339 341 342 340 341 340 338
344 331 328 331 335 339 340 341 341 342 342 341 332 324 324 330 319 323 326 325 325 329 336 337 339 344 343 342 341 341 340 341 339 338 338 339 337 337 342 342 342 342 340
341 342 331 332 332 333 331 336 339 342 343 342 340 333 325 324 319 314 313 313 313 318 321 324 331 342 343 341 342 342 339 339 341 339 338 337 336 331 343 341 339 340 341
342 344 339 337 340 342 341 339 340 339 340 340 338 336 334 328 321 331 320 316 317 313 311 311 328 338 341 340 342 340 340 338 340 339 337 337 335 334 342 339 338 338 339
327 328 338 342 346 347 346 345 346 346 342 343 342 339 339 336 331 335 332 330 328 322 314 312 315 332 335 339 341 339 337 337 338 338 338 337 336 334 338 339 340 340 339
328 324 325 329 333 345 347 347 345 346 347 347 346 344 344 341 338 337 334 332 331 328 322 312 311 316 327 333 336 336 333 331 336 340 337 337 336 333 330 335 337 340 340
320 321 323 330 339 344 347 346 346 346 345 345 344 343 343 343 341 340 335 335 332 329 328 326 321 323 312 318 328 328 333 333 328 338 338 336 335 336 332 327 330 335 338
316 316 319 325 335 337 337 337 340 343 342 342 342 343 343 342 342 340 337 335 333 330 328 327 324 324 323 318 321 325 327 334 329 334 338 336 335 335 334 331 327 327 331
311 310 312 316 318 322 322 320 323 322 322 323 326 327 332 337 340 340 340 340 339 333 329 327 326 324 323 322 321 320 320 322 326 329 332 332 333 333 333 331 329 328 332
309 309 309 310 310 311 311 311 312 312 313 316 318 316 314 316 319 322 325 330 335 337 337 335 329 325 323 321 319 318 316 318 319 321 328 331 334 333 332 333 330 330 332
309 309 309 309 309 309 309 309 309 309 309 310 310 309 310 309 311 312 314 317 320 324 328 333 336 334 328 323 318 317 317 316 315 315 318 329 333 332 332 332 333 330 332
309 309 308 308 309 308 308 308 308 308 308 307 307 307 307 307 308 308 309 310 313 313 319 319 321 327 333 333 327 322 317 315 314 314 314 326 329 330 328 326 333 331 328
309 309 308 308 308 308 307 307 307 307 307 306 306 306 307 307 307 306 307 307 308 310 311 313 316 318 321 326 330 329 324 320 316 314 313 313 326 325 325 324 322 330 329
308 308 308 307 307 307 307 307 306 305 306 305 305 304 305 305 306 306 306 306 306 307 309 310 313 320 316 315 321 326 329 325 320 318 315 313 314 323 322 321 319 322 328
308 308 307 307 306 306 306 306 305 305 305 305 305 304 305 305 306 306 305 305 305 306 307 308 308 310 314 317 317 318 314 321 326 322 318 315 312 314 320 319 318 316 319
308 308 307 307 306 306 306 306 305 305 305 305 304 303 304 305 305 304 305 306 305 305 306 307 308 308 308 311 318 314 314 312 319 326 322 319 312 312 316 318 317 316 314
308 308 308 307 307 306 306 306 305 304 304 303 303 303 304 303 303 304 304 304 305 305 305 305 306 307 307 307 317 318 315 315 317 322 323 323 319 312 312 316 316 315 314
309 308 308 308 307 306 306 305 304 304 303 303 303 303 302 302 303 303 303 303 303 304 305 305 305 305 305 305 307 315 312 313 313 315 317 317 316 314 312 312 315 314 314
308 307 307 307 307 307 306 304 304 303 303 302 302 302 302 302 302 302 302 302 303 303 304 304 304 305 305 305 304 305 313 314 313 312 313 314 315 317 315 312 314 314 313
307 307 307 307 307 307 306 304 303 303 302 302 302 301 301 301 301 301 301 301 301 303 302 302 304 305 305 305 304 304 305 308 313 313 313 312 310 311 317 316 312 313 313
307 307 307 307 306 305 305 304 303 302 301 301 300 300 300 300 300 300 300 300 301 301 302 302 302 302 304 305 305 304 305 307 310 311 312 311 312 311 312 313 313 314 312

GFSSE_925_thetae_054.txt.gz
Theta_e
346 343 348 347 348 348 348 349 348 347 345 345 346 347 347 348 348 347 348 348 348 348 348 350 350 350 351 351 349 348 348 348 347 346 346 345 345 344 343 341 339 339 339
340 343 348 348 345 348 347 348 347 345 344 342 342 346 345 346 344 346 346 347 347 347 346 344 349 349 349 348 348 348 348 345 342 342 342 343 342 344 344 342 340 339 339
336 341 347 347 341 348 347 347 346 345 344 342 338 338 343 345 345 345 346 346 347 347 347 346 345 346 346 344 346 347 346 343 344 343 342 342 344 345 344 342 340 339 339
335 338 343 341 343 347 344 343 344 341 343 343 338 335 339 342 344 343 344 345 345 345 345 345 344 344 341 338 341 341 343 344 345 345 344 344 345 346 345 343 340 340 339
338 334 335 339 346 344 342 341 339 341 338 338 332 336 337 336 343 342 342 342 340 342 342 343 344 342 344 341 337 339 342 344 344 343 343 342 339 345 344 343 341 338 338
347 344 335 334 337 341 340 339 339 340 338 333 326 330 336 323 330 333 332 334 332 334 339 340 341 342 342 341 339 339 342 341 341 340 338 339 338 338 341 339 339 338 337
343 336 333 337 341 342 341 340 338 342 339 339 334 325 328 327 316 321 320 319 318 323 331 334 338 342 341 341 339 339 341 341 340 339 337 336 336 336 340 340 339 340 337
339 339 337 338 341 342 341 341 339 342 342 340 338 334 328 325 320 318 313 312 311 312 314 317 328 340 342 340 340 341 339 340 340 340 337 337 336 333 342 340 338 337 339
338 341 336 337 340 340 338 340 340 340 340 340 337 335 337 334 327 333 329 319 322 318 311 310 318 331 340 339 339 339 340 339 339 338 339 337 336 333 337 336 334 338 337
327 333 333 342 344 345 344 345 345 343 344 345 345 344 343 340 335 335 333 332 330 328 324 312 311 321 332 337 338 339 336 336 338 337 338 337 336 336 336 336 335 335 339
325 331 333 334 342 347 347 346 346 347 346 346 344 342 343 343 342 340 336 334 333 329 327 323 316 311 316 327 334 337 334 326 329 336 339 336 336 336 336 332 335 337 337
321 331 339 342 346 346 346 346 345 344 344 344 343 343 342 341 339 338 339 335 333 332 329 327 325 324 322 315 321 330 330 332 330 330 338 337 337 339 335 331 331 333 336
311 318 324 329 329 327 327 327 325 325 328 328 328 331 337 338 339 340 339 339 338 335 330 329 327 326 324 323 320 320 322 325 331 329 334 337 336 336 337 334 330 326 329
309 309 311 313 312 312 313 314 313 314 317 316 312 312 313 315 319 322 323 327 332 336 333 330 329 325 325 325 324 321 320 319 324 328 330 333 336 334 338 334 332 329 326
309 309 309 309 309 309 309 309 309 309 309 309 308 308 308 308 309 309 310 312 317 323 326 327 331 334 331 327 322 320 321 319 316 319 320 330 335 332 335 338 334 330 329
308 308 309 308 308 308 308 308 307 307 307 307 307 307 307 307 307 307 307 307 308 310 314 316 318 319 325 330 332 326 319 317 317 316 315 315 325 332 334 338 337 334 333
308 308 308 308 308 308 307 307 307 306 306 306 305 304 305 306 306 306 305 305 305 305 308 309 311 313 315 317 320 329 331 325 319 315 314 313 314 326 334 333 337 335 332
308 308 307 307 307 307 307 306 305 305 305 305 304 304 303 305 305 306 305 305 305 305 307 307 308 309 310 311 311 312 320 327 329 322 318 315 313 316 331 333 330 333 333
308 307 307 307 306 306 306 305 305 305 304 304 304 303 302 304 305 305 304 304 305 305 305 305 307 307 309 310 311 313 312 311 312 319 326 319 317 314 323 329 328 324 325
307 307 307 306 306 306 306 305 305 305 304 304 303 302 302 303 303 303 302 304 303 304 305 305 305 306 307 307 308 310 310 309 309 307 312 325 322 318 314 324 326 323 320
307 307 306 307 307 306 306 306 305 304 304 303 302 302 302 302 302 303 303 303 303 303 303 304 305 305 305 306 307 307 309 308 310 311 313 321 326 324 320 312 323 322 319
307 307 307 307 307 306 306 305 304 304 303 303 302 302 302 302 302 301 301 301 302 302 303 303 303 304 304 305 306 312 309 309 311 314 311 316 314 317 316 314 314 321 319
308 307 307 307 307 306 306 306 305 304 303 303 302 301 301 301 301 301 301 301 302 302 301 302 303 302 303 304 305 307 308 309 309 312 312 311 311 314 313 312 312 318 319
308 308 307 307 307 307 306 306 304 303 302 302 301 301 300 300 300 300 300 300 300 300 300 301 301 301 303 303 304 305 305 307 309 307 310 311 310 310 309 310 314 312 315
307 307 307 307 307 307 306 305 304 303 302 301 300 300 299 299 299 299 299 299 300 300 300 300 300 301 301 302 302 303 304 304 306 308 307 308 310 309 311 311 309 313 313
306 306 307 307 307 306 305 304 303 302 301 300 299 299 299 299 299 299 299 299 299 299 299 299 299 300 300 301 301 301 302 303 304 305 306 305 308 310 309 310 311 310 309

GFSSE_925_thetae_057.txt.gz
Theta_e
348 344 347 345 347 346 344 348 346 345 343 344 346 346 347 347 347 347 348 347 347 347 349 350 350 350 349 349 347 348 348 347 346 346 345 344 344 343 342 340 338 339 340
344 343 349 341 340 349 346 347 345 344 341 339 343 345 345 344 345 346 345 346 346 346 347 348 349 349 347 348 347 348 347 344 341 340 341 342 343 343 342 341 340 339 337
336 341 348 343 344 349 348 346 345 343 342 338 335 340 343 342 341 346 345 345 346 347 346 346 346 347 346 347 346 346 343 343 343 342 341 342 344 344 342 341 340 339 337
332 339 346 341 342 347 342 343 340 342 342 338 334 337 338 343 343 342 344 343 343 344 345 345 344 344 340 341 341 343 343 344 344 344 342 341 342 344 344 341 340 339 340
332 335 338 336 344 347 341 340 344 340 339 334 334 337 336 340 341 341 338 337 336 341 341 342 342 341 342 339 339 341 343 343 343 343 341 338 340 344 342 339 337 338 339
339 337 338 344 347 344 342 342 343 339 335 330 328 336 334 331 335 334 330 328 326 327 337 339 341 341 340 341 339 340 342 340 340 340 337 336 336 340 336 335 338 338 338
343 340 338 341 344 343 342 341 343 341 340 339 333 328 331 326 318 320 319 317 316 319 325 332 336 340 340 339 339 340 341 340 339 341 338 336 334 334 335 337 337 337 336
343 337 337 339 342 342 340 340 341 344 341 338 336 334 331 328 326 326 317 313 313 312 311 313 322 336 339 338 339 340 340 340 339 339 339 337 336 335 336 338 338 336 336
340 336 336 338 339 338 339 342 342 341 341 342 342 341 339 335 329 333 330 325 328 326 321 311 312 321 336 338 337 339 340 340 338 338 338 337 336 335 336 331 334 337 337
343 339 340 342 343 344 342 344 344 343 344 345 344 342 343 342 339 336 335 334 332 331 328 320 314 313 323 332 335 337 337 337 337 337 338 337 336 336 337 333 334 334 338
338 334 341 343 344 346 346 345 344 343 345 344 342 342 342 341 338 341 340 337 334 335 332 329 328 318 317 318 327 334 336 333 327 332 337 338 336 336 340 335 333 334 335
338 343 343 345 346 346 345 344 343 343 342 339 337 337 340 340 340 337 337 336 335 336 335 332 331 330 328 324 318 321 327 328 330 331 330 337 336 337 338 335 332 331 334
328 328 326 328 329 330 327 325 324 321 318 315 313 314 318 321 326 329 332 333 336 336 334 331 330 327 326 326 324 321 319 320 324 328 330 331 338 337 336 336 334 331 329
313 314 312 313 315 314 312 311 312 311 309 308 308 308 308 308 308 309 310 313 317 323 328 329 329 332 331 326 324 323 323 321 320 319 326 330 336 336 337 338 337 334 332
308 309 309 309 309 308 308 308 308 307 307 306 306 306 306 306 306 306 306 306 306 307 310 314 316 318 320 326 330 330 323 319 320 319 316 319 323 330 337 338 339 338 336
308 308 308 308 308 308 307 307 307 306 306 305 303 303 305 305 305 305 305 305 305 304 306 308 309 310 312 314 315 317 325 329 324 317 316 316 315 315 331 336 338 338 337
308 308 308 308 307 307 307 306 306 305 304 303 303 302 302 304 305 305 304 304 304 305 304 304 304 306 306 307 309 309 311 316 325 328 324 318 314 313 316 325 332 336 338
308 308 307 307 307 306 305 305 304 304 304 303 302 302 302 303 304 302 303 302 303 304 304 304 304 305 306 307 308 307 308 308 308 310 318 324 322 317 313 316 327 334 337
308 308 307 307 306 305 305 305 305 304 304 303 302 302 302 302 301 301 302 302 303 303 302 302 304 304 304 305 305 306 306 305 305 307 306 309 317 324 318 315 324 332 332
307 307 307 306 306 306 305 305 305 305 304 303 303 302 301 301 301 301 301 301 301 301 301 302 302 302 303 304 305 305 305 305 304 304 307 309 313 316 323 322 315 327 332
307 306 306 306 306 306 306 305 305 305 304 303 303 302 301 301 301 301 301 301 301 301 301 302 301 302 303 303 304 305 305 305 307 306 308 311 313 310 317 320 321 317 328
306 306 306 306 306 306 306 305 305 304 304 303 302 302 301 300 300 300 300 300 300 300 300 300 300 301 301 301 303 305 303 305 306 312 306 306 308 307 313 310 312 313 315
306 306 306 306 306 306 306 305 305 304 304 303 302 301 300 300 299 299 299 299 299 299 299 299 300 300 300 301 302 303 303 304 305 305 305 304 304 306 305 307 308 312 313
306 306 306 306 306 306 306 306 304 304 303 302 301 300 300 299 299 299 298 298 298 298 299 299 300 299 299 299 300 300 302 304 306 305 304 304 304 304 304 306 309 311 311
306 306 307 306 306 306 306 305 304 303 302 301 300 299 299 299 298 298 298 298 298 298 298 298 298 298 298 298 299 299 300 301 301 304 304 302 304 305 305 305 306 308 309
306 306 306 306 306 306 305 304 303 302 300 299 299 298 298 298 298 298 298 298 298 298 298 298 298 298 297 297 298 298 299 299 300 301 302 302 304 305 304 303 303 303 305

GFSSE_925_thetae_063.txt.gz
Theta_e
346 343 343 347 344 343 345 343 342 336 343 345 344 346 346 346 346 346 346 347 346 348 348 349 350 349 347 349 348 347 347 345 342 341 342 342 342 342 341 340 337 338 343
345 342 345 345 347 345 344 344 341 334 330 337 339 344 343 345 346 345 346 346 346 346 347 347 348 347 348 348 347 347 346 344 342 341 341 343 340 342 341 340 341 338 339
345 343 348 344 345 347 345 344 342 335 332 331 337 342 343 342 344 345 344 344 345 345 345 346 346 345 346 346 346 345 345 343 341 341 341 345 344 342 340 338 341 343 337
339 345 347 344 345 344 342 342 343 340 334 334 336 335 340 340 340 341 341 340 342 343 346 346 344 343 341 341 342 343 342 342 341 338 342 342 343 343 340 337 339 340 340
339 344 347 344 345 344 344 343 340 336 331 332 335 333 336 339 338 336 334 327 330 340 339 340 343 343 342 339 340 342 341 339 340 340 340 342 342 339 336 332 335 337 340
341 345 346 341 344 344 340 342 337 337 337 332 330 329 324 325 322 319 318 316 315 322 329 333 338 343 342 340 339 341 341 338 339 340 336 339 342 336 335 333 333 331 333
341 341 345 344 344 341 340 339 339 338 338 336 333 332 329 325 326 318 313 316 318 315 312 314 322 334 344 343 340 340 341 339 339 340 338 337 339 336 336 331 336 334 333
340 340 347 343 342 340 340 338 340 341 337 338 338 338 335 331 332 331 327 329 329 329 325 315 313 318 328 338 341 340 340 340 339 338 339 338 336 336 336 334 331 335 334
341 341 346 345 344 340 341 342 341 340 343 343 343 342 342 340 337 336 337 335 334 334 334 330 326 314 318 329 334 337 339 339 339 338 339 340 337 336 336 334 331 333 336
340 340 343 343 340 340 341 341 342 342 342 341 341 341 339 337 340 339 338 338 339 339 340 338 334 333 326 319 318 326 332 336 338 334 337 338 337 336 335 334 334 332 334
339 340 344 343 342 342 342 342 342 339 338 336 337 337 336 335 335 337 336 337 335 335 336 334 331 329 327 326 324 321 317 324 330 334 332 330 335 336 335 336 336 332 332
337 341 344 343 342 341 341 339 335 328 320 317 316 317 316 321 321 322 322 323 329 331 331 330 329 329 329 328 326 325 323 321 318 320 324 326 328 328 336 336 335 333 332
339 340 342 342 339 337 332 321 316 312 310 309 308 307 307 307 307 307 307 306 307 309 311 316 320 321 321 324 325 326 327 325 322 321 320 320 319 328 331 336 337 334 332
326 331 330 328 327 323 316 311 308 306 305 304 303 304 304 304 304 304 304 304 304 304 304 304 305 307 310 312 316 318 320 321 325 325 321 319 319 317 327 334 340 337 333
316 316 314 314 314 311 309 306 305 304 303 302 302 302 303 303 303 303 303 302 302 303 303 303 304 305 306 305 308 310 312 314 318 320 325 324 321 318 316 322 331 338 339
309 309 309 308 308 307 306 306 304 302 302 302 301 302 302 301 301 301 301 301 301 302 302 302 302 303 304 304 306 307 308 309 310 311 311 314 320 320 319 315 317 324 337
308 307 307 307 306 306 306 304 303 302 302 302 302 301 301 301 300 300 300 300 300 300 300 300 301 301 303 303 304 305 306 306 307 307 307 306 308 311 317 320 316 314 324
307 307 306 306 306 305 303 303 303 302 302 302 302 301 301 300 300 300 299 299 299 299 299 299 300 300 302 302 303 304 305 305 306 306 306 306 305 304 307 315 319 319 315
307 306 306 306 305 304 304 304 304 303 303 302 302 302 301 301 301 300 299 299 298 298 298 298 299 299 300 301 301 302 303 304 304 305 305 305 304 305 309 309 312 318 321
306 306 306 305 304 304 304 304 304 304 303 303 302 302 301 301 301 300 300 299 298 298 298 298 298 299 300 300 301 301 302 302 303 303 305 306 308 310 308 307 312 315 319
306 306 305 305 305 305 304 304 304 304 303 303 302 302 301 301 300 300 299 299 298 298 297 297 298 299 299 300 301 301 301 302 304 305 306 306 308 308 307 306 307 307 310
305 305 305 305 305 305 305 305 305 305 304 303 303 302 301 300 299 299 299 298 298 297 298 298 297 299 299 300 300 301 304 302 305 308 305 305 305 306 306 306 306 305 306
305 305 305 305 305 305 305 305 305 305 304 303 302 302 300 299 299 298 298 298 297 297 298 297 298 298 298 299 299 299 302 302 302 301 302 303 302 302 304 305 304 305 305
305 305 305 305 304 305 305 305 305 304 303 302 302 301 299 299 298 298 297 297 297 297 297 298 297 298 298 298 298 298 299 299 301 301 300 301 301 301 302 302 304 305 306
305 305 305 304 304 304 305 305 304 304 303 301 300 299 299 299 298 297 296 296 296 297 297 297 297 297 297 297 297 298 298 298 299 301 301 300 300 301 301 302 302 302 304
304 304 303 303 304 304 304 304 303 302 301 299 298 298 298 297 296 296 296 296 296 296 296 296 296 296 296 296 297 297 297 298 298 299 301 300 300 299 299 300 301 302 303

GFSSE_925_thetae_066.txt.gz
Theta_e
347 347 344 345 348 345 345 343 340 343 345 344 346 347 347 347 347 347 347 347 347 348 349 349 349 349 349 349 348 347 346 346 345 344 342 339 342 341 341 342 336 342 346
345 345 343 343 346 344 345 342 337 331 332 339 344 344 345 347 346 345 346 347 346 347 347 348 348 348 348 348 348 347 347 345 343 341 344 344 339 341 340 343 342 338 344
343 344 346 340 347 347 345 344 341 334 328 335 338 343 342 342 343 343 341 344 345 346 346 345 346 346 346 346 345 345 346 344 340 341 341 343 342 342 340 341 341 340 342
341 344 343 342 347 343 344 344 343 336 331 336 335 339 340 339 338 339 338 337 342 343 344 344 344 344 344 344 344 346 342 341 338 340 338 338 338 338 339 339 339 342 344
342 343 344 344 346 343 342 340 340 336 333 335 335 334 338 337 334 333 331 331 334 338 337 339 343 343 342 342 342 344 340 339 339 341 341 340 338 337 339 333 336 338 340
342 343 343 342 346 342 342 339 336 338 336 335 334 332 331 332 330 328 324 321 320 317 321 329 335 343 342 342 343 344 341 339 342 342 341 341 341 339 341 331 334 334 338
343 343 342 344 345 342 341 340 339 336 336 335 335 335 333 333 331 321 325 330 331 327 316 313 318 332 340 342 342 342 340 340 340 342 341 340 340 338 340 335 331 333 333
343 343 343 342 344 342 340 340 342 340 340 340 340 340 338 335 336 336 335 335 335 337 334 327 324 319 325 336 340 341 340 339 341 340 340 340 339 336 340 335 331 333 333
342 344 346 344 344 341 342 343 342 342 343 343 342 342 341 340 339 339 336 338 339 340 340 338 337 334 327 321 326 332 336 338 340 339 338 337 339 336 335 338 334 332 334
342 343 346 345 344 344 344 341 342 342 341 340 340 339 338 338 340 340 340 339 338 338 338 335 331 329 326 325 322 317 318 326 336 337 335 337 337 337 335 339 336 333 331
341 342 345 345 345 345 341 338 338 338 336 336 334 333 332 328 328 327 334 334 333 333 333 332 331 330 329 330 328 325 324 323 322 326 330 332 327 332 336 336 339 335 331
342 344 345 344 344 341 332 334 331 326 317 316 316 316 316 316 314 314 314 313 314 318 320 323 324 326 327 330 331 331 331 329 327 325 323 323 323 324 326 334 338 338 332
341 341 342 340 339 335 323 320 317 315 314 312 311 311 311 311 310 310 310 310 310 310 311 312 314 316 318 320 323 326 327 327 330 329 325 321 319 318 322 327 338 338 336
336 335 333 333 328 322 317 315 312 310 308 308 307 307 308 308 307 307 307 307 307 308 307 307 308 309 310 311 313 317 319 321 325 327 329 326 322 319 318 320 329 339 340
329 326 324 321 318 315 312 309 308 307 306 306 307 306 306 306 306 306 306 306 306 306 306 306 306 306 307 307 308 308 310 312 315 319 321 320 321 323 320 317 318 327 334
321 317 315 313 312 310 309 308 306 306 306 306 306 305 305 305 305 305 304 304 304 304 304 304 304 305 305 306 306 307 308 308 308 310 311 313 312 312 320 321 318 316 321
314 311 310 309 309 309 308 307 306 305 306 306 306 305 305 305 304 304 304 304 303 303 303 303 304 304 304 305 305 305 306 307 308 308 308 309 309 310 310 312 319 319 317
311 310 309 307 308 308 307 306 305 306 306 306 305 305 305 304 305 305 305 304 303 303 303 303 303 303 303 304 304 304 305 305 306 306 307 308 309 309 309 310 311 313 318
310 309 309 308 307 306 306 306 306 306 306 306 305 305 305 304 304 305 304 304 303 303 303 302 302 302 303 303 303 303 304 304 305 305 305 306 307 308 311 312 311 308 311
309 309 309 308 307 306 306 306 306 306 306 305 305 305 304 304 304 304 304 304 303 303 302 302 302 302 302 303 303 303 304 304 304 305 305 306 307 310 313 311 310 311 312
309 309 308 307 307 307 306 307 307 308 307 306 306 304 304 304 303 303 304 303 303 303 302 302 301 301 302 302 302 303 303 304 306 306 306 307 308 308 310 310 309 309 309
309 309 308 308 307 307 308 308 308 308 307 307 306 305 304 303 302 302 302 302 302 302 302 301 301 301 301 301 302 302 305 304 305 308 307 307 307 307 308 309 308 309 309
309 308 308 308 307 307 307 307 307 306 306 306 306 305 304 302 302 301 301 301 301 301 301 301 301 301 301 301 301 301 304 304 303 301 303 304 304 304 304 304 305 306 305
309 308 308 308 307 307 307 307 308 308 309 308 306 305 303 301 301 301 300 300 300 300 300 300 299 299 300 300 300 300 300 301 302 303 302 302 302 302 302 303 303 304 305
309 308 307 307 306 306 306 307 308 308 307 306 304 303 302 302 302 301 300 299 300 299 299 299 299 299 299 299 299 300 300 300 300 301 302 302 301 301 302 302 303 303 304
307 307 307 306 306 306 306 306 307 307 307 305 303 303 302 302 301 300 300 299 299 298 298 298 298 298 298 298 298 298 299 300 300 300 302 302 302 301 301 301 301 301 302

GFSSE_925_thetae_069.txt.gz
Theta_e
343 347 347 346 347 346 342 339 340 343 343 346 346 347 347 347 347 347 347 348 348 348 348 349 349 349 349 349 348 347 346 345 342 345 343 337 340 341 342 336 340 346 348
342 344 345 349 344 346 342 339 337 333 337 343 344 344 345 345 344 344 346 346 347 347 347 347 348 348 348 348 347 347 346 340 339 343 345 342 336 341 341 342 342 345 346
341 343 347 346 348 346 344 342 342 335 336 337 341 341 341 340 342 340 340 344 345 346 346 345 346 346 346 346 346 346 346 339 339 339 340 341 339 339 340 340 344 344 342
340 341 343 343 345 344 345 345 343 336 336 335 336 339 339 336 335 334 333 334 341 342 343 345 344 344 344 345 345 346 342 339 340 340 339 338 338 339 338 339 339 342 339
340 340 346 344 343 344 344 344 339 335 336 336 334 335 336 334 331 330 329 330 332 332 334 337 343 344 343 343 345 345 339 338 342 342 341 341 340 339 340 333 337 339 340
340 342 341 345 343 344 345 343 341 340 338 337 337 335 334 332 330 328 332 335 333 330 328 326 332 339 341 342 342 344 340 338 341 340 338 338 340 339 341 336 336 338 339
340 341 342 346 343 344 344 343 343 340 337 337 336 336 335 338 335 334 335 337 338 337 335 332 326 332 335 339 342 342 338 339 341 337 338 337 339 337 342 336 332 334 337
342 342 343 343 342 343 344 344 344 343 342 342 342 341 339 338 340 340 339 340 340 340 339 338 337 333 327 327 331 335 337 336 340 337 336 337 339 336 342 338 333 332 333
341 341 343 344 343 344 344 343 343 342 343 345 343 341 342 341 340 340 341 340 339 341 339 337 331 328 325 321 317 317 320 326 330 335 334 339 337 335 338 343 336 332 331
340 341 344 344 344 344 345 342 342 342 341 340 339 338 336 338 336 338 336 335 336 335 335 334 332 330 329 330 327 325 322 323 333 331 333 336 333 334 336 337 342 336 331
340 339 343 343 343 345 341 339 340 338 336 331 327 326 329 328 326 322 323 321 322 325 323 324 326 329 329 332 332 331 332 331 330 324 324 330 330 325 327 334 337 341 334
339 340 343 344 344 341 335 327 334 325 321 321 320 320 319 318 315 315 314 312 313 313 314 313 314 318 321 324 328 329 331 331 332 331 328 325 321 321 320 326 331 337 340
339 341 341 341 342 337 328 324 324 322 319 315 314 313 312 311 310 311 311 310 310 309 310 310 310 311 312 314 316 320 322 324 327 330 331 329 326 320 319 318 324 335 338
341 341 340 340 338 330 325 323 318 314 311 310 309 309 309 309 308 308 309 309 309 308 308 308 308 308 309 309 309 309 310 314 319 322 326 327 325 325 323 320 318 325 336
339 336 334 331 327 324 319 314 311 309 309 309 309 308 308 309 308 308 308 307 307 307 306 307 307 307 307 308 308 308 309 309 310 310 314 317 316 315 320 323 321 318 324
332 329 328 325 320 316 313 310 309 308 309 309 309 308 308 308 307 307 307 307 306 306 305 306 306 306 306 307 307 307 307 308 309 309 310 310 311 310 310 311 319 322 319
326 321 318 315 313 312 310 309 308 308 308 309 308 308 308 308 308 308 307 307 306 306 306 305 305 306 306 306 306 306 306 307 308 308 308 309 309 310 310 309 308 312 321
318 315 313 311 311 311 310 308 308 308 308 308 308 308 307 307 308 308 308 307 306 306 306 306 305 305 305 305 306 306 306 306 306 307 307 307 308 309 310 310 310 313 310
315 313 311 311 311 310 308 308 308 308 308 308 308 308 307 307 307 307 307 307 306 306 306 305 305 305 305 305 305 305 305 306 307 307 307 307 307 307 309 311 313 312 310
313 312 311 311 309 308 308 308 308 308 308 308 308 308 307 307 306 307 307 306 306 306 306 306 305 305 305 304 304 305 305 305 305 306 306 307 308 308 309 314 314 312 311
312 312 311 310 309 309 309 309 309 309 309 308 308 307 306 306 306 306 306 306 305 305 305 305 305 305 304 304 304 304 304 304 306 307 306 307 309 309 309 309 311 311 310
312 312 311 310 309 309 310 310 310 310 310 309 309 308 307 306 305 305 305 305 305 304 304 304 304 304 304 304 304 304 305 305 305 307 307 305 304 306 305 308 309 310 309
312 312 311 310 310 309 310 310 310 309 309 309 308 308 307 306 304 304 304 304 303 303 303 303 303 303 303 302 302 303 304 304 304 303 304 304 304 304 304 304 305 306 306
312 311 311 310 310 310 310 310 310 310 310 311 310 309 308 306 304 304 304 303 303 303 303 302 302 302 301 302 302 302 302 302 304 304 303 303 303 303 303 303 303 303 304
312 312 311 310 310 309 309 309 310 310 311 310 309 308 306 305 305 304 303 303 302 302 302 301 301 301 300 300 301 301 301 301 301 303 304 303 302 302 303 303 303 303 304
312 312 311 310 309 309 309 309 309 310 310 310 309 307 306 305 305 304 303 303 302 301 300 300 300 300 300 300 300 300 300 301 301 302 303 303 303 302 302 302 302 302 303

GFSSE_925_thetae_072.txt.gz
Theta_e
348 342 344 349 348 344 339 336 339 339 344 345 346 347 346 345 346 347 347 347 347 348 348 348 348 348 348 347 347 346 341 343 344 344 339 327 337 340 341 342 344 346 347
346 345 346 348 348 344 340 340 333 336 340 343 343 343 343 341 341 342 346 346 346 346 346 347 347 347 347 346 347 346 334 338 340 341 343 333 330 339 340 344 342 344 346
345 345 349 346 346 344 343 342 336 336 335 339 339 339 338 337 337 336 338 344 345 345 346 345 345 345 346 345 346 341 336 337 340 340 341 339 337 337 339 340 343 340 345
342 346 345 346 345 345 344 343 337 337 334 334 338 337 335 332 331 331 332 335 336 338 341 344 344 344 344 344 345 339 337 340 340 341 336 340 340 339 337 337 340 339 341
345 345 342 342 343 343 344 342 339 338 337 335 333 334 332 331 330 331 332 331 331 330 330 333 339 343 341 342 343 340 337 340 338 339 339 338 336 340 339 338 336 339 339
344 341 342 343 344 344 343 343 342 340 338 338 337 337 338 333 333 336 337 338 336 333 331 329 330 331 338 340 342 338 336 337 337 337 338 337 334 337 340 339 338 338 339
343 340 344 344 343 344 345 343 341 338 338 338 337 338 339 339 340 340 340 340 340 340 339 337 332 329 320 325 333 335 335 336 339 338 338 339 336 334 343 337 337 338 337
341 344 345 342 344 344 345 344 343 343 342 343 343 342 340 341 341 340 342 341 342 342 339 337 334 331 324 319 316 316 320 327 333 336 336 337 337 334 342 340 334 334 335
342 343 342 342 341 344 344 343 343 344 343 343 341 342 341 340 340 340 339 338 338 337 335 333 331 330 329 330 329 328 323 321 331 334 333 337 335 332 337 341 340 334 332
341 343 344 344 345 344 343 343 341 340 339 338 337 334 333 330 333 335 331 327 328 327 320 325 326 329 328 331 332 331 331 328 329 323 332 333 332 327 330 336 338 340 333
339 344 343 343 343 343 341 341 339 337 329 325 324 326 328 322 319 316 313 314 314 315 313 313 314 317 319 322 326 325 329 331 331 330 328 325 324 321 324 326 331 337 340
340 344 343 342 342 341 336 331 329 322 321 320 320 319 318 315 313 313 311 310 310 310 310 309 310 310 310 312 314 316 319 322 325 327 331 328 328 326 319 319 324 331 339
338 342 342 342 342 335 329 325 324 321 317 313 311 311 311 310 309 309 309 309 308 308 308 308 308 308 308 308 309 309 309 310 313 320 322 327 327 326 325 321 323 323 335
340 340 341 341 339 330 326 323 319 314 311 309 309 309 309 309 309 308 308 307 307 306 306 306 306 306 307 307 307 308 308 308 309 310 310 313 315 316 314 319 324 326 326
340 340 339 337 330 326 321 315 311 310 309 309 308 308 308 308 308 307 307 306 306 306 305 305 305 305 306 306 306 307 307 307 308 308 309 309 310 310 310 310 317 324 324
337 335 331 329 324 318 313 310 309 309 309 309 308 308 308 307 308 308 307 307 306 306 306 305 305 305 305 306 306 306 306 306 306 307 308 308 309 310 310 310 313 315 320
332 330 328 320 316 313 310 309 308 309 309 309 308 308 308 308 308 308 308 307 307 306 306 306 305 305 305 305 305 305 305 306 306 306 306 306 307 308 308 310 312 313 315
325 321 317 314 312 311 310 309 308 309 309 309 308 308 307 307 308 308 307 306 306 306 306 305 305 305 305 305 305 305 305 305 305 305 307 307 307 307 307 307 308 313 315
319 315 312 312 311 310 309 308 308 309 309 308 309 308 307 307 307 307 307 306 306 306 306 306 305 305 305 305 305 304 304 304 305 306 305 305 306 307 308 309 309 311 313
315 313 311 311 311 309 308 308 308 308 308 308 308 308 307 307 306 306 306 306 306 305 306 305 305 305 304 305 304 304 304 304 303 304 305 306 307 308 309 309 310 311 311
313 312 312 311 309 309 308 308 309 309 309 308 308 308 307 306 306 305 305 305 305 305 304 304 304 304 304 304 304 304 303 303 304 304 304 305 306 307 305 308 309 310 310
313 312 312 310 309 309 309 309 310 310 310 309 309 308 307 307 306 305 305 305 304 304 303 303 304 303 303 303 303 302 301 302 304 303 303 302 303 304 304 305 306 305 307
313 312 312 311 310 309 310 310 310 310 309 309 309 308 308 307 306 305 304 304 304 303 303 303 303 303 303 302 302 302 300 300 301 302 302 302 302 302 303 303 304 304 305
313 312 312 311 310 310 310 310 310 310 310 310 310 310 309 307 306 305 304 304 303 303 302 303 302 302 301 301 301 301 301 301 300 300 301 301 302 302 302 302 302 303 303
313 312 311 311 310 310 310 310 310 310 310 311 310 309 308 307 306 305 305 304 303 303 302 302 301 301 301 300 300 300 300 300 300 300 300 299 301 302 302 302 302 302 302
313 312 311 311 310 310 309 309 309 309 310 310 310 309 308 306 306 305 304 303 303 302 301 300 300 299 299 299 299 299 299 299 299 299 299 299 299 300 301 301 301 301 301

GFSSE_925_thetae_075.txt.gz
Theta_e
342 346 347 348 344 338 337 337 338 342 343 345 346 344 343 344 346 346 346 347 347 347 347 348 348 347 346 346 345 344 342 341 344 338 334 329 338 343 344 343 345 345 347
343 345 347 348 344 340 339 334 336 339 341 341 341 341 340 340 339 344 345 345 346 346 346 346 346 346 346 346 337 338 340 341 342 342 336 328 336 338 342 342 342 346 346
339 341 345 347 343 343 341 336 335 335 337 339 337 335 334 334 333 336 339 340 342 345 345 345 345 345 345 345 337 337 340 340 339 340 339 335 332 337 338 339 340 344 346
341 340 344 344 344 343 341 337 337 334 335 337 335 333 331 331 331 332 333 334 335 338 340 342 343 343 342 343 338 337 340 339 339 339 338 335 335 338 337 338 338 340 343
345 340 341 343 344 344 341 339 339 338 336 334 335 332 331 333 336 337 336 333 330 330 331 330 333 341 340 342 336 336 338 337 339 340 337 334 333 339 338 337 337 339 340
343 342 341 341 343 343 343 342 340 339 339 338 338 340 334 337 339 339 339 339 339 338 336 332 331 326 326 323 330 330 335 337 338 340 335 335 332 341 339 337 337 338 341
339 338 338 343 344 344 343 341 341 341 341 340 338 340 341 341 340 341 343 342 341 340 339 337 337 330 320 317 316 317 324 328 336 340 338 336 334 339 341 339 335 337 338
335 338 338 341 344 346 344 343 343 343 343 343 342 341 342 341 342 342 341 340 340 339 334 332 331 329 330 330 330 328 316 322 334 338 338 337 335 335 341 340 336 333 334
341 338 334 338 340 343 343 343 344 345 341 339 343 339 338 339 337 336 335 332 331 325 324 326 327 326 326 331 330 330 329 329 327 324 335 335 331 333 334 335 340 334 332
343 338 340 340 341 341 343 341 340 339 336 333 332 330 327 325 322 316 318 318 317 316 315 313 316 316 320 322 325 321 326 329 328 330 326 328 326 324 324 333 335 339 333
343 343 343 343 343 341 341 340 338 329 323 324 327 329 320 317 314 311 312 314 315 315 312 311 309 309 311 312 311 311 313 316 320 329 328 325 326 327 319 321 326 336 339
343 344 344 343 342 339 339 336 323 320 319 318 319 318 312 311 312 309 308 309 309 307 307 307 307 307 308 308 308 308 309 309 310 316 324 328 327 326 326 322 320 325 338
343 343 343 341 340 337 336 324 321 318 314 312 313 310 309 309 309 308 307 307 306 306 306 306 306 306 306 307 307 307 308 308 308 309 310 312 311 314 315 313 324 322 326
342 342 342 341 337 333 325 323 320 314 313 310 309 309 308 308 308 307 306 306 305 305 305 305 305 305 305 306 306 306 306 306 307 307 308 309 309 310 309 310 313 325 324
342 342 342 339 332 325 321 314 312 310 309 308 309 308 308 308 307 306 306 306 306 306 306 305 305 305 305 305 305 305 306 306 306 306 307 307 308 309 310 313 314 316 322
337 338 338 329 326 322 316 311 309 309 309 308 308 308 307 307 307 307 307 306 306 306 306 305 305 305 305 305 304 304 305 305 305 305 305 306 306 307 307 312 314 314 315
334 330 327 324 320 317 312 310 309 309 308 308 308 308 308 308 308 308 307 306 306 306 306 305 305 305 305 304 304 304 304 304 304 304 305 306 307 307 307 307 307 312 314
331 329 320 317 314 311 310 309 308 309 308 308 308 307 307 308 307 307 307 306 306 306 306 305 305 305 304 304 304 304 304 304 304 304 305 305 305 306 306 307 308 310 312
325 320 315 312 311 310 309 308 308 308 308 308 308 307 307 307 307 307 306 306 306 305 305 305 304 304 304 304 303 303 303 303 303 303 304 305 305 305 308 308 308 309 309
319 316 313 311 311 309 308 308 308 308 308 308 308 308 307 307 306 306 306 306 306 305 304 304 304 304 304 303 303 302 302 301 303 304 304 304 304 304 304 304 308 309 309
314 313 312 311 309 308 308 308 308 308 308 308 308 308 307 307 306 306 305 305 305 304 304 303 303 303 303 303 303 302 301 303 302 302 303 302 302 302 303 303 304 304 306
312 312 311 310 309 308 308 308 308 308 309 308 308 308 308 307 306 305 305 305 304 304 303 303 303 303 303 302 302 301 298 300 303 301 301 301 301 302 301 302 303 302 303
312 311 311 311 309 308 309 309 310 310 310 309 309 308 308 308 307 306 305 304 304 304 303 302 302 302 302 301 301 301 298 297 299 300 300 300 301 301 300 300 301 301 301
312 311 311 310 309 309 309 309 310 310 310 309 309 309 309 308 307 307 305 304 304 304 303 302 302 302 301 300 300 300 300 300 297 298 300 300 299 300 300 301 301 301 302
312 312 311 310 310 309 309 310 310 310 310 310 311 310 309 308 307 306 305 304 304 303 303 302 301 300 300 300 299 299 299 299 299 297 298 298 298 299 299 299 300 300 300
312 312 311 311 310 309 309 309 309 309 309 309 310 310 308 307 306 305 304 303 303 302 302 301 300 299 299 299 299 299 299 298 297 297 295 297 297 297 298 298 299 299 299

GFSSE_925_thetae_078.txt.gz
Theta_e
345 343 348 345 341 340 338 340 341 343 344 344 342 342 344 346 346 346 346 346 347 347 347 347 345 346 345 345 345 345 345 344 339 337 329 333 340 343 343 345 345 346 346
342 346 347 344 339 337 335 338 340 340 340 340 340 338 338 339 342 343 343 345 346 345 346 346 345 345 345 345 341 342 342 344 341 335 333 326 334 339 340 344 345 345 346
344 345 346 344 342 339 336 335 336 338 338 336 334 333 333 334 335 338 340 341 343 343 344 344 345 344 341 337 339 339 339 341 340 337 333 331 334 337 339 338 344 345 346
341 344 345 343 342 340 338 336 335 336 337 335 333 332 332 332 332 333 333 335 336 338 340 342 343 343 341 336 337 338 338 338 338 338 333 332 333 338 337 338 340 342 344
341 343 343 344 343 340 338 338 337 335 335 335 333 332 336 337 338 337 334 333 332 330 330 328 332 329 332 332 333 336 337 337 339 337 334 332 330 338 337 337 339 340 341
342 342 343 344 343 342 341 341 340 340 338 340 338 335 338 339 339 340 341 340 339 339 338 335 330 321 317 317 320 328 329 336 340 336 336 335 331 338 338 336 337 339 340
343 341 342 343 343 342 341 341 341 341 340 340 341 341 341 341 342 341 340 340 340 338 337 337 335 332 330 330 328 318 320 334 339 337 336 336 334 336 340 336 332 336 339
339 339 341 343 344 343 342 342 343 343 342 342 341 341 341 341 339 339 339 338 335 333 332 332 332 331 331 330 330 330 328 327 334 337 337 335 334 338 341 339 332 329 332
336 336 336 341 345 344 343 344 344 344 342 344 341 340 339 337 335 332 330 326 322 322 321 324 322 322 329 329 322 324 327 328 329 327 334 331 330 333 330 334 340 334 329
340 332 338 340 342 342 342 340 339 338 338 339 333 326 323 317 316 318 317 320 319 318 318 315 314 312 313 312 311 311 313 321 328 332 330 326 328 331 322 324 332 339 335
341 336 340 340 341 341 339 339 335 325 330 337 326 319 317 312 311 311 314 315 315 315 314 311 307 308 308 308 308 308 309 309 322 328 326 329 332 332 328 320 321 330 338
340 341 342 341 341 341 338 334 323 322 321 325 324 313 312 311 309 308 308 307 306 306 306 306 306 307 307 307 307 308 307 307 308 313 319 315 315 322 322 317 324 322 334
341 343 343 342 340 339 336 324 319 318 317 315 317 310 309 309 307 307 306 306 305 305 305 305 305 305 305 306 306 306 306 306 306 307 311 310 312 314 314 315 312 325 325
342 343 344 340 338 336 326 321 318 312 311 311 309 308 308 308 307 306 306 305 305 305 305 306 305 305 305 305 305 305 305 306 306 306 306 306 307 314 314 314 315 318 325
342 343 342 340 335 328 322 321 316 313 311 309 308 308 308 307 306 306 306 306 306 306 305 305 305 305 305 304 304 303 304 305 305 305 305 305 306 307 314 314 314 315 316
341 342 341 339 329 325 322 315 310 310 309 308 308 307 307 307 307 306 306 306 306 306 305 305 305 305 304 304 303 303 303 303 303 303 304 305 306 306 307 312 313 313 314
341 342 340 331 324 316 312 310 310 309 308 307 307 307 307 307 307 306 306 306 306 306 305 305 304 304 304 303 303 302 302 302 303 303 303 304 305 305 305 306 310 311 312
340 339 330 325 315 315 312 310 309 308 307 307 307 307 307 307 307 307 306 306 305 305 305 304 304 304 304 303 302 302 301 301 301 301 303 304 304 304 305 306 308 309 311
333 327 323 318 315 312 310 309 308 308 308 307 307 307 307 307 307 307 306 306 306 305 304 304 304 303 303 303 302 302 301 301 302 303 303 303 302 303 304 306 309 310 311
323 320 317 313 311 310 309 308 308 308 308 308 308 308 307 306 306 306 306 306 305 305 304 304 303 303 303 302 302 302 301 302 301 301 302 302 301 301 301 302 303 304 306
314 312 311 310 310 309 308 308 308 308 308 308 308 308 307 307 306 306 305 305 305 305 304 303 303 302 302 302 302 301 301 301 300 301 300 300 301 300 301 300 300 302 302
313 311 311 311 310 309 308 308 308 308 308 308 308 308 307 307 306 306 306 305 304 304 304 303 302 302 302 302 301 299 296 299 301 301 300 300 299 300 299 298 299 300 301
313 312 311 310 309 308 308 307 308 308 308 308 307 308 307 307 306 306 306 305 305 304 304 303 302 302 302 301 300 300 296 296 297 299 299 299 299 299 298 299 300 300 300
312 311 311 310 309 308 308 308 308 309 309 309 309 308 308 307 307 307 307 306 304 304 304 303 302 302 301 300 300 299 300 299 296 296 298 298 298 298 298 298 298 298 298
311 311 311 310 309 308 308 309 309 309 309 309 309 310 310 309 308 307 306 305 303 303 303 302 301 301 300 299 299 298 298 298 298 295 297 296 297 297 297 297 297 298 298
310 310 310 309 308 308 308 309 309 309 309 309 309 309 309 308 307 306 304 303 303 302 302 301 300 299 299 298 298 298 297 297 296 295 292 295 296 296 297 297 297 298 298

GFSSE_925_thetae_084.txt.gz
Theta_e
346 346 345 344 342 341 344 344 343 343 342 343 345 345 345 346 346 346 346 346 346 346 345 345 343 343 344 344 345 344 342 338 335 331 330 339 341 346 346 346 345 345 346
344 345 345 343 340 340 340 341 341 340 340 338 339 342 342 342 342 344 345 345 344 345 345 344 343 343 344 343 343 344 340 340 333 330 327 329 337 342 344 343 345 347 346
344 346 342 339 338 339 339 338 338 337 335 334 334 336 337 339 340 342 341 341 341 343 342 343 343 343 343 343 343 342 343 339 333 331 329 329 336 338 342 342 344 346 346
343 344 340 340 338 337 338 337 336 335 333 332 332 332 333 334 335 336 336 335 336 337 337 335 336 337 336 336 335 336 339 335 333 332 330 331 333 337 338 340 343 344 344
344 342 341 340 338 336 337 337 337 335 334 334 335 336 336 334 333 334 334 334 333 333 332 332 333 335 335 334 331 336 341 336 335 334 333 333 337 337 336 338 339 341 343
343 342 342 341 339 337 336 336 336 336 335 336 337 338 339 340 339 340 337 338 338 338 338 338 338 337 336 336 334 335 337 336 335 335 334 335 338 340 337 336 337 339 340
343 340 342 342 340 339 339 339 339 339 337 338 339 339 341 340 339 341 339 337 337 336 332 334 336 333 329 328 329 335 338 336 335 335 335 336 338 338 340 338 335 337 338
340 342 343 342 341 341 341 341 341 341 341 342 340 339 341 341 339 336 332 329 329 328 326 327 327 326 323 319 326 327 333 336 335 334 334 333 335 336 337 340 337 331 336
340 340 342 341 341 341 342 343 342 343 342 340 340 340 339 336 332 327 325 325 323 324 323 321 322 321 317 313 316 326 328 329 333 330 329 332 334 334 332 331 337 338 332
341 340 341 341 341 341 343 341 342 343 341 340 339 333 329 325 324 325 322 322 322 320 319 314 311 311 311 310 310 319 329 328 326 329 331 330 330 330 331 331 330 331 338
341 340 341 342 341 343 343 342 342 342 339 332 324 320 319 317 318 319 320 320 318 317 314 307 307 307 308 308 308 308 311 319 321 325 316 318 322 320 319 320 326 329 334
342 341 342 343 343 342 341 341 341 339 333 323 316 313 311 312 314 313 312 310 308 306 305 305 305 305 305 305 305 306 306 306 307 311 310 309 315 320 319 317 318 325 330
340 340 343 343 342 340 340 338 338 337 328 320 314 311 309 307 306 306 305 305 305 305 305 305 304 304 303 303 303 304 304 305 305 305 305 306 308 316 319 317 316 318 322
340 340 342 341 341 340 338 331 330 329 329 322 312 311 308 306 305 305 305 305 305 305 305 304 304 303 303 302 302 302 302 302 303 303 304 304 305 307 316 317 316 317 317
340 340 343 339 339 338 335 326 322 317 323 319 311 309 307 306 305 305 305 305 305 305 305 304 304 304 303 302 302 301 301 301 301 301 302 303 304 305 307 314 317 315 315
340 338 340 340 339 338 331 320 316 315 315 311 308 308 307 306 306 305 305 305 305 305 304 304 304 304 304 303 302 302 302 301 301 301 302 302 303 305 305 306 307 315 314
341 338 340 340 339 336 327 317 312 311 309 308 308 307 306 306 306 306 306 305 305 305 304 304 304 304 304 304 303 302 302 301 303 302 302 302 302 304 311 312 318 318 313
341 340 340 340 339 334 323 318 312 310 308 308 307 307 306 306 306 305 305 305 305 305 304 304 304 304 303 303 303 303 302 301 301 302 302 301 301 302 303 305 308 312 315
340 341 340 339 336 330 322 317 310 308 307 307 307 307 307 307 306 306 306 305 305 305 305 304 304 303 303 303 303 302 302 301 301 300 300 300 300 300 301 301 301 303 306
339 340 340 338 331 325 317 309 308 307 307 307 307 307 307 307 306 306 306 305 305 305 305 304 303 303 302 302 302 302 302 301 300 300 300 299 299 299 299 299 299 299 300
337 339 339 335 327 318 309 308 307 307 306 306 307 307 306 306 306 306 306 305 305 305 304 304 303 303 302 302 301 302 301 301 300 300 300 299 299 298 298 297 297 298 299
334 335 332 328 316 311 311 309 308 307 307 307 307 307 307 306 306 306 306 305 305 305 304 304 303 303 302 302 300 298 295 299 300 300 300 299 298 298 298 297 297 296 296
327 331 327 321 313 311 309 308 307 307 307 307 307 307 307 307 307 306 306 305 305 305 304 303 303 302 302 301 300 300 295 295 295 299 299 298 298 297 297 296 296 296 296
318 323 321 316 313 310 308 308 307 307 307 307 307 307 307 307 307 306 306 305 305 304 303 303 302 302 301 301 299 299 299 298 295 294 297 297 297 296 296 295 296 295 296
315 316 317 314 310 309 308 307 307 307 307 307 307 307 308 307 306 306 305 304 304 303 303 302 302 301 300 300 299 298 298 297 297 294 295 294 296 295 295 295 295 295 295
310 313 312 310 308 308 307 306 306 306 307 307 308 308 308 308 307 306 305 304 303 302 302 301 300 300 299 298 298 297 297 296 295 294 290 292 292 294 295 294 295 295 295

GFSSE_925_thetae_087.txt.gz
Theta_e
345 345 345 343 340 346 346 346 343 343 344 345 344 345 346 346 346 346 346 345 346 345 344 342 342 343 345 345 344 343 341 340 337 332 334 339 343 345 346 347 346 346 346
345 346 345 343 339 343 344 343 340 341 340 340 344 343 343 343 344 345 345 345 345 344 345 341 340 342 344 344 344 344 341 339 335 330 327 335 338 342 343 344 345 346 346
346 345 345 342 340 340 340 340 339 337 335 336 337 339 339 340 341 340 340 341 343 341 340 340 339 338 340 339 343 344 340 334 330 328 335 333 336 339 342 344 344 345 346
346 344 341 340 340 340 338 337 335 333 333 333 333 334 335 337 337 336 336 335 335 334 333 335 336 338 337 335 338 344 337 334 332 332 334 337 333 337 339 341 343 345 345
345 341 340 339 339 338 338 337 335 334 334 335 335 334 333 333 334 334 335 336 335 335 336 336 337 337 338 334 337 343 335 335 333 337 338 337 338 337 336 338 338 341 343
343 341 342 339 337 337 338 337 336 335 335 337 339 339 339 338 337 339 338 338 338 337 337 338 336 332 333 334 337 340 336 335 335 338 338 337 336 341 338 336 338 338 339
342 342 340 340 338 337 338 337 338 337 337 338 338 340 340 339 341 339 338 337 333 333 337 332 329 327 328 331 337 338 335 335 337 337 335 335 336 336 341 340 336 337 339
342 341 341 340 340 340 340 340 340 339 340 341 339 338 341 340 338 333 331 331 329 329 330 328 326 324 321 327 329 333 335 334 333 333 333 335 335 334 333 337 340 337 337
341 341 344 339 340 340 341 342 342 342 341 340 340 340 338 333 329 328 327 327 326 325 324 324 323 318 315 321 329 330 330 331 331 331 330 332 331 331 332 332 333 339 338
341 342 342 341 341 341 343 342 341 341 340 340 338 333 329 328 327 326 325 324 323 322 319 312 311 312 311 311 319 327 327 327 328 328 325 324 324 323 323 324 332 334 339
342 341 341 341 341 342 342 340 341 341 340 335 331 329 323 322 322 322 322 321 319 317 313 307 306 307 308 308 308 309 313 315 319 317 315 314 320 323 321 320 322 331 333
342 341 342 341 341 343 341 341 342 340 333 325 320 318 317 318 319 319 317 317 315 310 305 305 304 304 304 304 305 305 306 306 307 306 308 308 315 321 321 318 319 321 328
340 340 341 341 343 343 341 340 341 337 329 318 314 311 310 311 310 306 305 305 305 305 304 304 303 303 302 302 302 302 302 303 304 305 305 305 306 312 320 318 317 318 320
339 340 341 343 342 340 337 339 339 335 325 316 313 310 307 306 305 305 305 305 304 304 304 304 303 303 303 302 302 302 301 301 301 301 302 303 304 306 314 319 318 317 317
339 339 341 344 341 338 337 336 335 334 327 319 312 309 307 305 305 305 305 305 305 305 305 304 304 304 304 303 303 302 302 302 301 301 302 302 303 309 312 315 315 316 315
339 338 340 344 340 338 337 332 327 322 328 319 311 308 306 305 305 305 305 305 305 305 304 304 304 304 304 303 303 303 302 302 302 302 302 302 303 312 316 319 318 316 315
340 339 338 340 339 338 335 326 322 317 322 315 309 307 306 305 305 305 305 305 305 305 304 304 304 304 304 303 303 303 302 302 302 302 302 302 302 304 306 310 316 319 320
340 339 337 339 339 338 334 320 315 312 311 308 308 307 306 305 305 305 305 305 305 305 304 304 304 304 304 303 303 303 302 301 301 300 301 301 301 301 301 302 305 311 314
340 339 338 338 339 337 329 319 311 310 309 308 307 306 306 306 305 305 305 305 305 305 304 304 304 304 304 304 303 303 303 302 301 300 299 300 300 300 300 299 300 301 303
339 339 338 338 338 334 325 318 310 308 307 307 306 306 306 306 306 306 305 305 305 305 305 304 304 304 303 303 303 303 302 302 300 300 300 299 299 299 299 298 298 298 298
338 339 338 337 335 331 322 312 307 307 307 306 306 306 306 307 306 306 306 305 305 305 305 304 304 303 303 303 303 304 302 302 300 300 300 300 299 299 298 298 297 297 297
336 336 337 335 333 325 320 312 308 307 307 306 306 306 306 306 306 306 306 305 305 305 305 304 303 303 302 302 303 301 305 304 301 300 301 300 299 298 298 297 297 297 296
330 334 332 334 328 323 314 309 308 307 306 306 306 306 306 306 306 306 306 305 305 305 304 304 303 302 304 301 301 303 304 305 301 301 300 299 299 298 298 297 297 297 297
324 328 327 330 326 319 310 309 308 307 307 307 307 307 307 306 306 306 305 305 304 304 304 303 303 302 301 303 300 300 300 300 302 302 299 299 299 297 297 297 296 296 296
321 321 325 324 317 310 309 309 308 307 307 306 306 306 306 306 306 305 305 304 304 303 303 302 302 301 301 301 301 299 299 298 298 299 300 299 297 297 297 296 296 296 296
315 323 323 316 309 308 308 307 306 306 306 306 307 307 307 307 307 307 306 306 305 304 302 301 301 300 300 299 298 298 298 298 299 298 298 298 297 296 296 296 296 296 296

GFSSE_925_thetae_090.txt.gz
Theta_e
343 344 344 342 347 347 348 346 344 346 345 345 344 346 347 347 347 346 346 346 345 345 344 341 344 346 345 345 343 342 339 338 337 337 336 342 345 347 347 345 346 346 347
343 344 346 341 347 347 346 343 343 342 343 343 343 344 345 345 345 345 345 345 345 345 344 344 343 343 342 345 343 341 340 337 338 333 334 335 341 345 346 345 346 347 346
344 342 344 341 343 344 344 342 341 338 338 340 341 340 340 342 341 341 342 342 341 339 339 338 337 339 340 344 344 341 340 337 336 335 332 331 336 341 344 345 346 346 346
344 340 343 341 341 341 341 339 337 335 334 335 336 337 338 339 338 337 336 335 334 334 337 339 339 339 337 343 343 341 336 335 337 334 335 334 331 338 340 342 345 345 346
343 341 341 341 341 340 338 336 334 334 335 335 335 334 335 335 335 336 336 336 336 337 337 338 337 338 338 340 341 340 334 336 337 336 334 337 336 337 337 339 341 344 344
340 341 341 341 339 339 338 337 336 336 337 339 339 338 337 338 339 338 338 339 337 339 338 333 332 335 340 342 342 338 334 336 336 335 336 334 337 342 340 337 339 340 343
339 339 338 339 338 338 339 338 337 337 339 339 339 341 340 341 341 338 337 334 337 336 332 330 329 335 338 340 340 337 334 334 333 333 335 335 333 334 338 341 338 338 340
340 338 337 339 339 339 339 340 340 339 341 340 339 340 340 340 336 334 332 331 332 331 330 327 326 329 332 333 335 334 332 333 333 334 335 333 330 333 333 335 340 337 338
339 338 337 337 338 340 341 341 342 342 341 341 341 341 337 333 331 330 330 329 328 327 326 325 323 318 324 329 330 330 330 330 331 331 329 328 325 326 327 332 334 340 339
338 338 337 337 337 340 342 341 341 341 341 341 339 337 332 329 329 328 327 326 324 322 319 313 313 313 313 317 324 326 326 323 322 324 324 323 326 326 324 324 329 334 339
337 339 338 337 338 342 343 342 342 339 341 337 333 330 329 329 327 326 324 322 321 319 311 307 306 307 308 308 309 309 311 312 313 316 319 317 322 324 322 320 322 327 332
338 339 338 338 339 342 342 342 341 342 336 331 326 323 323 324 323 322 321 320 317 310 305 304 304 305 307 307 307 306 308 308 309 309 312 306 311 319 322 319 319 320 325
337 338 339 338 340 343 342 341 342 336 328 321 320 319 319 319 318 315 312 309 308 307 307 307 307 306 306 306 306 306 306 306 306 306 307 304 307 316 318 322 319 319 320
338 339 340 340 342 343 341 341 339 334 324 318 316 313 312 310 308 308 308 308 308 308 308 308 308 307 307 306 306 306 306 306 305 306 308 305 315 315 315 317 320 317 317
338 339 341 343 344 342 341 340 337 332 324 318 314 310 309 309 308 308 308 308 308 308 308 308 308 308 307 307 307 306 306 305 305 305 307 306 316 318 320 321 316 318 316
339 339 341 344 343 342 339 336 335 332 326 318 313 310 309 309 308 308 308 308 308 308 308 308 307 307 307 307 307 306 306 305 305 305 305 306 303 307 313 318 321 321 319
340 339 341 343 342 341 336 332 329 327 324 318 313 309 308 308 308 308 308 308 308 307 307 307 307 308 308 308 308 307 306 305 305 305 305 305 305 303 304 308 314 317 318
341 339 340 341 340 340 331 331 321 319 320 316 311 309 308 308 308 308 309 309 308 308 308 308 308 308 309 308 308 308 306 305 305 304 304 304 304 304 304 301 302 304 310
342 341 340 340 340 335 334 332 321 312 313 311 310 309 308 308 308 309 309 309 308 308 308 308 308 308 309 309 307 307 307 306 305 303 304 303 303 303 303 302 300 300 300
336 341 342 340 337 332 327 315 312 310 310 309 309 308 308 308 308 308 309 309 308 309 308 308 308 307 308 308 307 308 308 306 305 304 303 303 303 303 303 303 302 302 299
338 341 342 339 333 327 321 314 311 311 310 309 309 308 308 308 308 308 309 309 309 309 309 308 308 308 309 307 308 309 309 307 305 304 303 305 304 303 302 302 302 301 301
340 341 341 337 332 324 319 316 315 313 310 310 309 309 309 309 309 309 309 309 308 309 309 308 308 308 308 307 308 308 311 308 306 304 304 304 303 303 302 302 301 301 300
339 339 339 334 327 324 319 314 312 310 309 309 309 309 309 308 309 308 308 309 308 308 309 309 308 308 308 308 305 307 310 310 308 306 305 304 303 302 302 301 301 300 300
338 337 335 332 327 322 318 314 312 312 311 309 309 309 309 308 308 308 308 308 308 308 308 307 307 306 307 307 306 304 305 305 306 306 304 304 303 301 301 300 300 299 299
333 332 331 327 325 320 315 313 312 312 312 311 310 310 309 309 308 308 307 307 307 307 307 306 306 305 305 305 306 305 304 303 303 303 304 303 302 301 300 300 299 299 299
326 326 326 327 321 314 310 312 312 312 310 310 310 310 310 309 308 307 307 307 307 307 306 305 305 305 304 304 303 303 303 303 303 303 303 302 301 300 299 299 298 298 298

GFSSE_925_thetae_093.txt.gz
Theta_e
347 341 340 348 349 349 348 347 347 347 347 348 347 348 348 348 347 347 347 346 346 346 346 346 345 345 346 343 342 339 338 337 335 335 336 342 345 347 347 344 345 346 346
345 341 341 348 349 348 347 345 344 344 345 343 344 346 347 346 346 345 345 345 344 344 343 341 341 343 345 343 342 341 338 335 332 332 334 337 341 344 346 346 345 347 347
342 344 340 345 347 347 344 343 340 340 343 343 342 342 344 343 342 343 343 341 338 340 339 340 340 343 345 343 342 340 338 335 334 335 331 331 336 342 343 345 346 346 344
341 341 342 342 345 344 344 342 337 336 337 338 339 340 340 340 338 336 336 335 335 338 340 340 341 342 344 343 342 336 336 337 334 335 338 336 331 337 341 343 345 345 345
339 340 342 342 342 341 339 337 335 335 335 335 336 337 337 336 337 337 337 337 337 338 336 335 338 342 344 342 342 336 335 336 335 334 335 338 340 340 337 339 342 344 344
339 342 341 342 341 340 337 336 336 337 338 338 335 336 338 338 339 339 337 338 340 335 333 334 338 341 342 342 340 334 335 334 333 335 334 333 335 339 341 339 339 341 343
338 341 341 341 340 339 338 337 337 339 340 339 341 340 340 342 338 337 336 337 335 333 331 333 338 339 341 340 337 333 332 333 335 336 334 332 332 334 336 341 338 338 340
339 337 338 339 340 340 339 339 339 340 341 339 339 339 340 339 337 334 334 334 333 331 329 329 332 333 334 335 333 330 332 333 333 331 331 328 327 329 331 335 341 340 338
338 337 334 335 338 340 340 341 341 342 341 342 342 339 337 334 333 332 331 330 329 328 327 326 325 325 328 330 330 329 328 328 329 328 326 326 327 327 326 328 334 339 341
336 335 334 335 336 338 341 341 343 341 341 341 340 334 331 331 330 328 328 326 324 322 317 315 314 312 313 317 321 321 316 319 321 322 322 322 326 326 323 324 326 333 337
335 336 336 335 338 341 341 342 342 341 340 337 335 332 331 330 328 327 324 323 321 315 308 306 306 307 309 308 307 309 311 312 312 315 314 314 320 323 323 321 322 324 330
336 338 336 336 337 340 341 341 341 341 338 333 329 327 326 326 326 324 322 318 307 305 305 305 307 308 308 308 308 308 308 308 309 309 313 310 317 319 322 322 321 321 322
337 338 336 337 338 339 338 340 340 339 332 326 323 322 322 323 321 319 316 312 310 309 309 309 309 309 309 309 309 309 308 308 308 309 308 315 316 316 318 319 321 319 321
337 337 337 337 338 339 338 342 338 334 326 322 320 318 316 314 311 311 311 311 310 310 310 310 310 310 309 309 309 309 308 308 308 308 310 317 320 322 323 320 317 318 319
337 337 338 338 339 340 340 339 338 333 325 321 316 313 312 311 310 311 310 310 310 310 310 310 310 310 310 309 309 309 308 308 307 308 308 304 311 316 320 323 323 318 319
337 338 339 340 341 340 340 339 337 333 326 320 316 313 311 311 311 311 310 310 310 310 310 310 310 310 310 310 310 309 308 308 308 307 308 307 304 306 315 318 321 323 323
337 338 340 342 342 341 340 337 335 332 325 321 316 312 310 310 310 310 310 310 310 310 309 310 310 310 310 310 310 310 309 308 308 307 307 307 307 306 303 305 308 314 316
337 338 341 344 342 341 340 334 330 328 324 320 315 312 310 310 310 310 310 310 310 310 310 310 310 311 311 311 310 310 310 309 308 307 307 307 306 306 306 302 302 302 304
339 339 341 344 342 340 336 333 332 330 326 318 313 312 310 310 310 310 311 311 310 310 310 310 310 310 311 311 310 309 310 309 308 306 306 306 305 306 305 305 303 302 301
340 341 341 342 342 337 334 332 327 322 316 313 312 311 310 310 310 310 311 311 310 311 310 310 310 310 310 310 310 310 311 310 308 308 307 305 306 306 305 305 305 304 302
342 340 343 342 341 336 331 318 317 312 313 312 311 311 310 310 310 310 311 311 310 310 311 311 310 310 311 311 310 311 311 311 309 307 306 306 307 306 305 304 304 303 303
337 334 343 342 337 332 328 320 318 315 314 313 311 310 310 310 310 310 311 311 310 310 311 311 311 311 311 310 309 309 312 311 310 307 306 306 306 305 304 304 304 303 302
334 339 341 341 336 332 328 321 320 317 314 312 312 311 310 311 310 310 310 310 310 311 311 311 311 311 311 310 310 308 310 310 309 308 308 307 306 305 304 303 303 302 302
337 340 342 340 336 332 327 322 318 315 314 313 312 311 311 310 310 310 310 310 310 310 311 310 310 310 309 310 309 309 307 307 308 308 306 305 305 304 303 302 302 301 301
339 340 341 339 334 331 325 320 317 316 314 312 311 311 311 311 310 310 310 310 310 310 310 309 309 309 308 308 308 308 308 307 306 306 307 305 304 303 303 302 301 301 300
338 340 338 336 333 327 323 320 317 314 313 312 312 312 312 311 311 310 310 309 309 309 309 309 308 308 308 307 307 306 306 305 305 305 305 304 303 302 301 300 300 300 300

GFSSE_925_thetae_096.txt.gz
Theta_e
343 335 347 349 349 349 348 348 346 348 347 347 347 347 347 347 347 346 346 346 346 345 344 343 345 345 343 341 338 338 339 338 339 340 334 342 344 346 346 344 345 346 347
341 341 348 349 349 348 347 346 346 347 346 344 347 346 346 346 345 345 344 344 344 341 341 342 344 346 342 341 339 339 337 334 334 335 331 333 342 344 346 344 345 347 347
340 340 348 348 348 347 345 342 342 345 344 342 344 345 343 344 343 341 339 339 340 340 341 342 343 345 343 341 337 337 335 333 335 340 337 334 337 341 345 345 345 346 346
343 339 345 347 347 346 344 339 338 338 339 340 341 341 340 337 337 336 336 336 338 339 338 340 343 344 343 342 334 335 335 337 332 335 338 339 338 337 340 344 344 345 345
342 341 340 346 345 344 341 336 335 335 336 336 337 337 337 337 337 337 337 338 336 334 336 340 342 343 342 337 333 334 333 336 335 333 333 335 336 339 337 339 342 343 344
342 343 334 343 342 339 336 335 336 337 336 335 336 337 338 337 338 337 340 337 335 335 338 339 341 341 341 337 332 333 334 337 334 332 328 329 334 338 340 338 338 341 343
345 342 338 342 339 337 336 337 338 340 340 340 340 341 342 341 339 338 338 336 334 333 337 338 339 341 339 335 331 332 333 333 331 329 327 328 329 331 336 342 340 338 339
343 341 341 341 339 338 338 339 340 341 341 340 339 340 341 338 336 336 336 334 332 331 331 333 332 331 330 329 329 331 330 329 327 326 326 327 327 328 329 335 339 341 338
339 340 338 339 340 340 340 340 342 342 342 341 341 338 337 335 334 333 332 331 330 329 326 321 322 325 327 328 327 323 322 324 323 322 320 325 327 326 325 326 332 335 340
336 335 335 337 338 339 340 341 343 341 341 340 337 335 333 333 331 330 328 326 324 318 316 314 312 310 309 311 311 313 314 313 317 318 310 319 323 325 323 324 325 331 334
336 334 334 335 337 340 342 343 341 341 340 338 334 331 330 329 328 326 325 323 317 308 306 306 308 309 309 307 308 308 309 310 310 309 306 315 320 322 324 322 322 323 330
335 335 334 335 339 341 342 340 340 338 334 331 329 331 330 328 325 323 316 307 306 306 307 308 309 309 309 309 308 308 308 308 309 306 314 318 318 319 320 323 320 322 323
335 336 336 337 340 340 342 340 339 339 336 328 325 326 325 325 321 312 309 309 310 310 310 310 309 309 309 309 309 308 308 308 308 305 319 321 323 324 320 318 319 320 322
337 336 336 337 338 339 341 338 339 335 327 323 321 321 320 320 317 312 312 310 310 310 310 310 310 309 309 309 309 308 307 307 307 307 304 313 317 321 325 322 318 320 321
337 336 336 336 339 340 340 339 337 328 323 320 317 315 313 311 310 311 310 310 310 310 310 310 310 310 309 309 309 308 308 308 307 308 308 305 309 319 321 324 325 325 325
337 337 337 337 338 338 339 337 335 327 322 317 315 312 311 311 311 311 310 310 310 310 310 310 310 310 310 310 309 309 308 308 307 307 307 307 306 304 309 316 318 319 319
337 337 337 338 340 339 339 338 334 327 322 318 314 312 311 311 311 310 310 311 310 310 309 310 310 310 310 311 310 310 309 308 307 307 307 307 306 306 304 303 305 310 314
337 337 339 339 340 340 339 337 333 328 323 318 314 312 310 310 310 310 310 310 310 309 310 310 310 311 311 311 310 310 310 309 308 306 306 306 306 306 306 304 301 301 301
337 338 342 341 341 340 338 336 332 328 323 318 319 311 310 310 310 310 310 310 310 310 310 310 310 310 311 311 310 309 310 310 309 308 306 306 305 305 305 305 305 304 303
337 338 345 343 342 340 336 335 330 329 324 321 314 311 310 310 310 310 311 311 310 310 310 310 310 310 310 310 310 309 310 311 310 308 307 305 305 306 305 305 304 303 303
338 339 343 343 342 339 333 330 327 325 319 315 312 311 310 309 310 310 311 311 310 310 310 311 311 310 310 311 310 310 310 310 310 308 307 306 306 306 305 304 304 304 303
341 341 343 341 341 338 334 334 333 317 314 313 312 311 310 310 310 310 311 311 310 310 310 311 311 310 311 311 310 309 307 309 309 307 306 306 306 306 305 305 304 303 303
340 339 342 341 340 337 335 331 321 315 314 313 311 310 310 310 310 310 311 311 310 310 311 311 311 311 311 310 310 309 305 306 306 308 307 307 306 305 305 304 304 303 302
338 335 342 340 336 335 332 321 319 317 314 313 312 310 310 310 310 310 310 310 310 311 311 311 311 311 310 309 309 309 309 308 303 303 306 306 305 305 304 303 303 302 301
336 338 343 337 336 334 331 321 320 315 314 313 312 311 311 311 310 310 310 310 310 310 310 310 309 309 309 308 308 308 308 307 307 304 302 304 304 303 303 302 301 300 300
338 341 342 337 334 332 328 323 317 316 315 313 311 311 311 310 310 310 310 310 310 309 309 309 309 309 308 308 307 306 306 305 305 304 300 301 301 302 301 300 300 300 299

GFSSE_925_thetae_099.txt.gz
Theta_e
344 339 347 350 349 348 348 348 348 348 348 347 347 347 346 346 346 345 345 344 343 342 343 345 343 340 339 340 341 339 339 338 338 335 341 344 344 347 346 344 344 345 346
338 346 347 349 349 348 348 347 347 347 347 346 347 346 346 346 345 343 343 343 342 341 342 344 343 341 338 341 341 340 340 340 341 336 334 339 343 344 346 345 346 346 346
336 346 346 348 348 348 346 346 346 345 344 345 345 345 345 343 340 339 339 339 339 340 341 343 343 342 340 340 339 340 338 335 337 337 337 337 337 343 345 345 345 346 346
336 345 347 348 347 344 342 342 343 343 342 342 342 340 337 337 337 336 336 337 337 338 341 343 343 342 338 336 335 341 338 333 331 334 334 335 337 337 342 345 346 345 345
337 345 347 346 346 343 339 337 337 337 337 338 337 336 337 337 337 337 338 335 336 338 341 342 342 341 334 334 335 339 337 332 326 328 333 334 337 339 337 340 342 343 345
338 342 344 345 344 340 336 335 335 336 336 336 336 337 337 338 339 340 337 337 339 340 340 341 340 340 332 333 332 337 333 329 327 327 328 330 334 339 342 338 338 342 343
339 338 343 342 339 336 335 337 338 337 337 338 340 340 341 340 340 338 336 335 336 338 338 339 337 334 330 331 329 332 330 327 326 326 327 327 329 332 338 340 339 338 342
339 339 341 339 337 336 338 339 340 341 342 342 340 342 340 338 338 337 335 333 332 333 333 332 329 328 328 328 325 324 323 324 322 322 326 327 326 328 330 335 339 338 340
340 340 340 338 338 338 339 341 342 342 342 340 341 340 338 336 336 335 333 332 330 327 322 321 321 323 325 321 318 316 317 319 317 312 318 324 326 326 326 330 335 339 338
339 337 337 338 338 339 340 342 342 342 342 341 339 337 335 333 332 331 328 326 321 318 315 311 308 307 309 310 310 311 311 310 308 306 312 321 325 325 324 325 329 334 336
336 332 335 337 336 338 341 342 341 342 339 336 331 330 328 329 327 324 324 319 311 307 308 308 309 308 308 308 308 308 308 308 304 310 318 319 321 323 323 323 324 326 330
335 335 333 335 337 341 342 340 340 338 334 330 330 329 328 326 323 314 309 307 307 308 309 309 308 308 308 308 308 308 308 307 306 315 323 325 324 321 321 321 323 324 324
333 334 334 337 340 340 340 338 338 333 326 326 331 330 327 325 311 306 309 310 309 309 309 309 309 309 308 308 308 307 307 307 304 305 316 321 325 326 320 320 322 323 324
332 334 334 338 341 341 337 336 336 335 328 324 328 326 323 320 313 310 309 310 310 310 310 309 309 309 308 308 308 308 307 307 307 307 305 318 322 324 326 325 326 325 324
334 334 334 338 340 341 336 337 339 331 326 321 321 319 318 317 311 311 310 310 310 310 310 309 309 309 309 309 308 308 308 307 307 307 307 305 314 318 320 321 320 320 320
335 335 336 339 340 341 337 339 333 324 322 319 316 314 312 310 311 310 310 310 310 310 310 309 310 310 310 309 309 308 308 307 307 307 306 306 305 306 313 315 316 317 318
336 335 337 338 339 340 339 333 326 324 322 318 314 311 311 311 310 310 310 310 310 309 309 310 310 310 311 310 309 309 309 308 307 306 306 306 305 305 304 302 305 309 310
336 336 336 339 340 338 337 332 327 323 322 317 313 311 311 311 310 310 310 310 309 309 309 310 310 310 311 311 309 309 309 309 308 307 306 306 303 305 305 304 304 303 305
336 337 337 338 339 338 337 332 324 323 322 317 312 311 310 310 310 310 310 310 309 309 310 309 309 310 310 310 310 309 310 309 309 308 307 306 305 306 306 305 304 303 303
336 338 339 339 339 337 333 328 327 324 319 317 315 311 310 310 310 310 310 310 309 309 310 309 310 310 310 310 310 310 310 311 309 309 308 306 305 306 305 304 304 304 303
336 340 340 339 339 338 334 333 328 328 329 321 315 311 310 310 310 310 310 311 310 310 310 310 310 310 310 310 310 310 309 309 309 309 307 307 306 306 305 305 304 304 303
339 340 340 339 339 337 336 334 331 332 328 317 313 311 311 309 310 310 311 310 310 310 310 311 310 310 310 311 310 308 304 308 308 307 307 306 305 305 305 304 304 304 303
338 342 340 340 339 337 336 333 332 331 320 313 312 311 310 309 309 310 310 310 310 310 310 310 311 311 311 310 310 309 304 304 304 308 307 306 306 306 305 304 303 303 303
338 342 338 335 336 335 334 332 331 324 313 313 312 311 310 310 310 309 310 311 310 310 310 310 311 311 310 310 309 309 309 307 302 302 306 306 306 305 304 303 301 301 301
338 338 337 334 334 334 333 333 322 315 314 313 312 310 310 310 310 310 310 310 310 310 310 310 310 309 309 309 308 308 308 307 306 302 301 303 304 304 303 302 302 300 299
336 340 338 336 334 334 333 329 319 318 314 313 311 311 310 310 310 310 310 310 310 310 310 309 309 309 308 308 307 306 305 304 303 302 298 299 299 300 301 300 300 299 299

GFSSE_925_thetae_102.txt.gz
Theta_e
344 343 342 350 349 349 349 349 349 348 348 348 347 347 346 346 345 344 343 342 342 343 345 341 338 341 342 342 343 341 341 338 337 340 343 344 345 346 346 346 345 346 347
342 345 349 349 349 348 348 348 348 347 347 346 346 346 345 344 344 343 342 341 340 341 345 342 338 341 342 342 341 342 341 340 338 335 336 342 343 345 345 345 345 346 347
339 347 348 348 347 347 347 348 346 347 346 346 345 344 343 342 341 340 340 339 340 341 344 341 340 341 342 342 340 339 338 336 333 335 336 335 341 345 345 344 345 346 346
342 347 348 347 346 347 346 346 344 344 345 343 341 341 339 337 337 337 336 337 339 342 343 342 341 341 341 340 341 336 333 331 332 335 336 339 337 340 344 344 345 345 345
346 343 346 347 344 343 343 343 342 342 342 340 337 336 337 336 337 336 336 337 340 343 342 342 340 340 337 341 336 333 331 325 327 332 335 337 340 337 338 342 343 343 344
344 344 346 345 341 341 339 338 337 338 337 336 337 337 337 340 338 338 339 340 339 341 341 340 339 338 334 338 335 332 327 326 326 327 329 334 338 340 337 338 342 342 343
345 344 345 345 341 338 336 336 336 336 336 337 338 338 343 341 339 338 338 339 339 339 339 338 336 335 330 333 332 327 323 324 325 326 326 328 332 337 340 338 340 341 342
343 344 343 342 338 336 337 337 337 338 339 340 342 341 340 340 338 336 335 336 336 336 335 333 332 329 325 329 326 321 318 317 321 325 326 326 328 332 337 340 339 339 340
341 343 341 338 336 338 339 340 342 342 342 341 341 340 339 338 337 335 334 332 331 330 328 326 325 322 320 324 319 315 313 309 312 321 325 326 326 327 332 336 338 339 339
340 340 337 336 338 339 339 341 343 343 342 342 340 338 337 335 334 332 330 328 326 322 319 314 314 314 313 315 310 309 307 305 309 317 321 325 325 326 326 328 333 334 336
340 339 336 336 337 339 342 342 342 342 341 339 337 335 331 328 325 322 321 321 318 317 312 310 309 307 308 308 308 307 304 310 318 324 322 322 323 323 325 326 326 328 331
339 338 336 336 337 341 342 342 341 340 337 333 331 328 326 324 320 314 312 315 315 314 310 309 308 308 308 307 307 306 304 307 312 323 326 325 322 322 324 325 325 326 325
337 337 335 335 338 341 341 340 338 335 331 330 328 327 324 319 308 307 310 310 309 309 309 309 308 308 308 307 307 307 307 305 306 318 324 327 325 323 326 326 325 325 326
334 332 332 334 339 341 340 338 332 329 329 330 330 328 324 309 306 309 309 309 309 308 309 308 308 308 308 308 308 307 307 307 306 308 320 322 325 326 325 323 321 321 322
333 333 332 336 340 340 338 337 330 326 327 329 329 328 321 312 308 309 309 310 309 309 309 309 309 308 308 308 308 308 307 307 307 306 306 314 318 319 320 319 320 321 320
332 333 335 338 339 339 336 335 333 325 325 324 327 322 319 312 310 310 310 310 310 310 309 309 309 309 308 308 308 308 308 307 307 306 306 305 307 311 313 312 313 314 314
332 333 334 338 340 339 336 336 335 327 321 321 320 319 317 310 310 310 310 310 310 310 309 309 310 310 309 309 308 308 308 308 308 307 306 305 304 305 305 304 307 310 310
332 333 335 338 340 339 336 338 330 322 319 316 313 312 310 310 310 310 310 310 309 309 309 310 310 310 310 309 309 308 308 307 307 308 307 306 304 306 305 305 304 304 306
333 333 337 338 339 339 338 338 324 321 320 316 313 311 310 310 310 310 310 310 309 309 309 309 310 310 310 310 310 309 309 309 308 307 307 306 305 306 305 305 305 304 304
334 335 338 338 339 339 335 326 322 319 318 317 313 311 310 310 310 310 310 309 309 309 309 309 309 309 309 310 310 310 309 309 309 308 307 306 305 305 305 305 304 304 304
335 337 338 338 338 336 327 321 318 319 318 321 314 311 310 310 310 310 310 309 309 309 309 309 309 310 310 310 310 309 309 308 308 308 307 306 305 305 305 305 304 304 303
336 337 337 337 336 330 326 322 321 323 320 318 314 311 310 310 310 310 310 310 309 309 309 310 310 310 309 310 309 307 303 307 307 307 306 306 305 305 304 304 303 303 303
338 338 336 336 334 330 327 326 325 323 322 321 315 311 310 310 310 310 310 310 310 310 310 310 310 310 310 310 309 308 303 303 303 306 306 306 305 305 305 303 302 301 300
339 339 336 332 331 331 330 328 329 327 324 324 316 311 310 310 309 310 310 310 310 310 310 309 310 311 311 310 309 309 309 307 303 303 306 306 305 305 304 303 302 302 300
337 339 334 332 330 331 333 331 330 330 327 324 314 311 310 309 309 309 310 310 310 310 310 310 310 310 310 310 309 308 307 307 305 301 300 303 304 304 302 301 301 300 299
336 337 333 332 332 333 332 329 331 331 329 314 312 312 310 309 309 309 310 310 310 309 310 310 310 309 308 308 307 307 306 305 303 301 297 298 298 300 300 299 298 298 297

GFSSE_925_thetae_108.txt.gz
Theta_e
339 340 351 350 349 349 349 350 349 349 348 347 347 347 346 343 342 341 343 343 339 338 342 342 343 345 343 340 339 339 341 342 343 343 345 344 345 346 346 345 345 345 346
334 347 349 349 350 349 349 349 348 348 348 347 347 346 343 342 341 339 340 344 340 338 341 342 343 342 341 340 339 339 339 339 339 340 341 344 344 345 345 344 344 347 346
332 347 345 347 348 349 349 349 348 347 346 346 346 343 341 340 339 338 338 343 340 339 342 341 342 340 339 338 338 338 338 338 333 335 340 341 343 345 345 343 345 347 346
332 343 348 347 348 348 348 348 347 346 346 345 341 340 340 338 338 337 339 343 342 341 341 340 342 339 336 334 335 337 336 337 338 337 335 339 343 344 345 345 345 345 345
337 346 347 347 346 347 347 346 346 345 343 341 340 338 337 337 336 338 341 342 341 340 337 341 340 338 336 334 332 332 333 335 336 337 337 336 339 342 344 343 343 344 344
343 348 346 345 344 347 347 345 343 342 340 339 337 336 336 336 337 339 343 342 341 339 337 340 339 337 334 332 331 329 325 329 333 336 337 337 335 339 340 343 343 343 342
347 346 345 344 346 346 345 341 341 341 338 337 337 337 336 337 338 338 340 340 340 338 336 340 338 335 332 330 328 324 323 325 327 331 336 336 337 337 337 339 341 342 342
346 345 345 343 343 345 343 340 339 338 337 337 337 337 337 337 339 338 338 337 337 336 333 335 336 331 327 324 323 321 322 322 324 327 330 334 337 338 337 336 337 338 340
346 345 344 342 340 340 339 338 337 337 337 340 341 339 337 337 337 337 337 336 335 333 330 332 333 327 323 321 319 316 322 323 323 326 327 329 331 333 333 334 334 336 337
344 343 341 340 339 337 337 337 337 337 339 341 340 337 336 336 336 335 333 330 329 327 325 328 327 322 320 319 313 314 318 321 323 324 326 328 329 329 330 331 332 334 336
345 344 342 338 336 336 336 336 338 340 340 339 338 336 336 334 333 330 326 322 322 322 323 325 323 318 317 316 314 319 320 321 322 324 326 327 328 328 328 328 330 330 331
342 342 340 336 335 335 336 339 341 342 340 338 337 336 333 331 327 326 323 321 319 319 320 322 310 306 305 309 318 323 325 324 322 325 327 327 326 325 326 326 325 326 327
340 341 338 335 335 337 338 341 342 341 340 337 333 331 328 324 322 319 318 317 317 316 310 308 307 306 306 306 308 315 323 325 326 327 327 325 325 325 324 323 322 322 322
339 340 336 334 335 338 339 342 342 340 339 334 329 324 322 320 316 316 314 313 312 308 307 307 307 307 307 307 306 306 308 316 325 324 322 322 323 323 321 320 319 319 319
338 338 335 333 335 339 341 341 342 340 337 329 325 321 318 313 313 312 308 308 308 307 307 307 307 307 307 307 307 307 306 306 308 312 316 318 317 317 316 316 316 317 316
337 337 335 332 333 339 341 341 340 338 331 327 324 322 311 307 309 308 308 308 308 308 307 308 307 308 308 307 307 307 307 306 305 305 306 308 312 313 314 314 314 315 316
337 337 335 332 333 339 341 340 339 335 329 326 326 324 308 308 308 308 308 308 308 308 308 308 307 307 308 307 308 307 308 307 306 305 304 305 305 307 311 311 311 312 312
336 336 335 332 333 338 341 339 337 333 328 328 327 325 309 308 308 309 309 308 308 308 309 308 308 308 308 308 308 307 307 307 307 306 305 305 305 305 306 306 308 309 309
334 333 334 330 332 336 340 339 338 332 329 328 328 326 313 308 309 309 309 309 308 308 309 309 308 309 308 308 308 308 308 307 307 307 306 305 306 305 305 304 304 304 306
333 332 332 332 333 336 339 340 338 331 329 329 328 326 318 310 309 309 309 309 309 309 309 309 309 309 309 309 308 308 308 309 309 307 306 305 305 305 305 304 304 304 303
333 332 331 331 335 337 339 339 336 333 328 327 327 326 320 312 310 309 309 309 308 309 309 309 309 309 309 309 309 308 307 306 307 307 306 305 304 304 305 305 304 304 303
332 332 332 332 336 335 336 337 332 332 328 324 321 324 320 315 310 309 309 309 308 308 308 308 308 308 309 308 308 306 303 305 306 306 305 305 304 304 304 304 303 303 302
332 332 332 333 333 332 337 333 331 328 323 316 314 311 309 309 309 309 309 309 309 309 308 308 308 308 309 309 309 307 302 303 302 304 303 303 303 304 303 302 301 301 301
332 332 333 333 334 334 334 330 329 324 316 313 310 308 308 309 308 309 309 309 309 309 308 308 309 309 309 308 308 308 307 306 302 304 304 304 304 303 302 302 302 301 300
333 333 333 334 334 335 332 330 325 321 318 316 312 313 311 311 312 308 309 309 309 309 309 309 309 309 309 309 309 308 307 306 305 303 302 303 303 302 301 301 299 297 297
333 334 334 333 332 331 328 325 322 321 319 320 319 316 316 315 310 310 309 309 309 309 309 309 309 309 309 309 309 308 307 305 303 302 298 300 300 302 300 299 297 297 296

GFSSE_925_thetae_111.txt.gz
Theta_e
342 331 350 350 350 350 349 350 350 349 347 347 347 347 344 342 343 345 341 338 341 343 344 345 344 342 339 339 339 342 344 344 344 344 345 344 345 347 347 346 346 346 347
339 342 350 349 350 350 350 350 349 348 347 347 346 345 343 341 340 344 342 339 341 342 345 342 342 340 338 338 338 339 341 340 341 342 344 344 344 346 346 345 346 346 347
337 351 349 347 349 350 350 349 348 347 347 346 345 343 341 340 338 340 344 340 342 342 343 341 340 338 337 338 338 338 339 335 339 341 342 345 345 345 346 345 345 347 346
347 351 350 346 347 348 349 348 348 347 346 346 344 340 339 338 337 339 344 341 342 341 342 340 338 336 335 336 337 338 338 336 333 337 340 342 344 345 345 345 346 346 346
349 349 349 346 346 347 347 347 347 346 346 343 340 339 338 337 337 339 343 342 341 339 342 340 338 336 335 333 334 335 335 336 337 336 337 340 342 344 344 344 344 344 344
346 347 347 346 347 346 347 346 346 345 343 340 339 337 336 337 338 344 343 341 338 340 340 339 336 334 332 331 331 331 332 335 336 336 340 336 339 342 342 342 342 342 343
345 349 348 346 347 347 347 346 344 341 341 339 337 336 336 338 342 342 342 341 338 341 340 337 335 333 330 329 328 326 326 332 334 335 339 339 337 338 339 341 342 342 342
346 347 347 346 345 345 346 344 340 340 339 337 336 336 337 338 340 340 339 339 336 338 339 336 331 328 327 327 327 325 323 326 330 332 334 335 335 337 338 339 340 341 341
347 347 346 347 346 343 343 341 340 339 337 337 337 336 339 340 338 337 337 337 335 334 337 333 329 326 323 325 326 325 323 325 327 329 330 331 332 334 335 333 334 338 339
346 345 344 343 343 343 341 338 338 337 337 339 340 336 336 336 336 336 336 335 332 331 335 328 325 323 322 324 322 321 322 324 326 328 328 329 330 332 332 332 333 334 336
344 343 342 341 339 339 337 337 337 337 340 340 338 335 335 335 335 333 329 329 327 328 330 324 323 323 324 323 317 319 323 325 326 327 327 327 328 328 328 327 329 331 332
343 341 341 339 337 336 336 337 337 339 340 340 338 335 334 333 330 327 324 324 325 327 326 322 312 310 315 322 323 320 324 327 328 326 325 326 326 325 325 325 325 325 326
341 341 340 338 336 335 336 338 338 340 339 338 336 335 333 331 326 323 321 320 322 324 320 307 305 308 315 321 324 323 324 326 326 324 325 326 324 323 322 321 321 321 322
340 340 339 337 335 336 337 339 340 341 339 337 335 332 330 326 324 322 320 319 315 315 307 305 306 306 308 312 319 324 324 323 322 322 322 321 320 319 320 319 319 319 319
340 339 338 336 335 336 337 340 340 340 338 337 331 328 324 322 319 318 316 315 309 307 306 307 307 307 307 306 307 310 315 316 317 318 316 316 317 318 318 318 319 318 317
338 339 338 335 334 336 338 340 339 338 338 334 327 322 321 319 316 313 311 311 307 307 307 307 307 307 307 307 307 306 306 307 308 308 313 314 315 315 316 316 316 316 316
338 338 338 336 335 337 338 341 339 338 338 330 323 321 317 313 312 308 307 307 307 307 307 307 307 307 307 307 307 307 306 305 305 306 306 307 309 311 313 313 313 313 313
338 338 337 335 336 338 339 340 340 340 336 328 323 322 311 310 309 308 307 307 307 307 307 307 307 307 307 307 307 307 307 306 305 305 305 305 306 306 306 306 309 311 311
338 337 337 336 335 338 340 339 340 338 334 327 325 324 309 309 308 308 308 308 308 308 307 307 307 308 307 307 307 307 307 307 306 305 305 305 305 305 305 304 304 304 307
336 336 336 335 334 337 340 341 339 338 334 328 326 325 313 308 308 308 308 308 308 308 308 308 308 308 308 308 307 308 308 307 306 306 305 305 305 305 305 305 304 304 304
334 334 335 334 334 335 338 338 338 337 334 330 328 327 322 308 308 309 308 308 308 308 309 309 308 308 308 308 308 307 306 306 307 307 306 305 304 304 305 305 304 304 304
333 333 333 333 332 334 335 336 335 334 333 330 328 327 325 312 309 309 308 309 308 308 309 309 309 308 308 308 309 308 310 308 306 306 305 305 304 304 304 304 303 303 302
333 332 332 332 333 334 325 335 335 332 327 322 321 319 320 318 312 308 308 309 308 308 308 308 309 308 308 308 308 308 309 311 307 305 304 303 303 303 303 303 302 301 301
334 332 332 332 333 331 331 331 335 331 323 318 314 314 318 319 315 308 307 308 308 308 308 308 308 308 308 310 307 307 307 307 310 310 304 303 303 302 301 301 301 301 301
334 332 332 333 333 330 332 330 330 327 321 314 310 309 312 313 313 310 308 307 308 308 308 308 308 308 308 308 308 308 307 306 306 309 310 306 302 302 301 301 301 299 298
333 332 332 333 333 332 331 327 327 321 317 313 311 311 313 316 314 312 311 310 307 307 308 308 308 309 309 309 309 308 308 308 307 307 307 306 306 303 301 301 299 298 296

GFSSE_925_thetae_114.txt.gz
Theta_e
337 343 349 351 351 351 350 349 346 344 346 349 348 346 345 346 344 340 340 344 345 346 345 344 341 339 339 341 343 345 345 345 345 345 343 345 346 348 347 346 346 346 347
332 347 350 349 351 351 351 351 350 347 348 348 347 345 343 343 345 342 340 343 344 345 343 342 339 339 339 339 340 342 343 342 343 345 345 345 345 346 347 345 345 346 348
332 349 351 349 349 350 351 350 350 348 347 347 346 344 342 340 345 342 341 343 344 343 341 339 338 338 338 338 339 340 340 340 341 343 344 345 346 346 347 345 346 346 346
335 347 350 348 348 348 349 349 348 347 347 346 344 342 341 339 340 345 342 343 342 343 340 339 337 336 337 338 339 339 334 336 339 342 343 344 344 346 346 346 346 347 346
341 348 346 347 346 348 349 349 348 347 346 345 342 340 339 338 339 345 343 342 342 342 340 338 337 335 335 336 337 338 338 338 337 338 341 342 343 344 345 345 345 344 344
348 348 350 347 346 346 348 348 347 346 345 343 341 339 338 337 340 344 342 340 342 341 339 337 335 333 333 333 334 335 337 338 340 338 336 340 342 343 343 343 343 343 343
344 344 348 346 348 348 348 347 347 345 342 341 339 337 337 339 345 342 342 339 342 340 338 337 334 332 331 330 331 332 334 336 339 338 337 338 339 342 342 342 342 342 342
341 341 345 345 346 347 347 347 345 343 342 339 338 337 338 343 343 340 341 341 340 340 337 333 331 330 329 329 329 326 331 333 335 335 335 337 337 339 340 341 341 341 341
341 345 347 347 346 345 344 345 342 340 340 338 337 338 339 342 341 341 340 337 340 338 334 331 328 328 328 328 328 327 327 329 330 330 331 334 334 337 337 337 339 339 339
342 344 346 346 345 345 344 342 340 340 338 337 335 340 340 340 339 336 337 335 337 336 331 328 325 325 326 327 327 324 325 326 328 328 329 330 331 332 333 334 336 337 337
344 344 345 346 344 344 341 340 339 337 337 338 337 337 337 339 336 336 335 333 335 333 328 326 325 325 324 324 321 323 324 326 326 326 327 328 328 328 328 329 331 332 334
344 344 344 343 341 340 336 336 333 333 340 341 339 337 336 336 334 331 331 328 332 329 325 326 326 323 321 320 322 325 326 325 325 326 326 326 326 325 325 325 325 326 327
343 343 343 342 340 336 332 332 332 334 341 340 339 336 333 332 329 326 326 326 329 325 320 316 317 319 321 322 322 325 325 323 324 325 324 324 323 323 322 322 323 322 322
342 342 341 341 339 332 330 332 336 342 340 339 337 335 331 330 327 325 323 324 325 320 311 311 313 318 320 320 321 322 321 321 322 321 320 321 322 322 322 321 321 320 320
340 341 342 341 338 331 330 334 342 340 339 338 338 333 329 327 324 323 321 319 317 311 309 310 311 313 314 316 318 318 317 317 318 317 318 319 320 321 321 320 319 319 318
340 340 342 340 337 330 332 340 340 340 338 338 335 330 326 324 322 320 318 315 311 310 310 310 311 311 311 311 312 313 313 314 314 316 316 317 317 318 318 318 317 317 317
340 340 341 339 337 331 333 340 340 339 337 337 332 326 323 321 319 317 314 311 310 310 310 310 310 310 311 311 311 311 311 311 311 312 314 314 313 314 315 315 315 315 314
341 340 339 338 336 332 334 340 340 337 337 336 328 323 321 319 315 312 311 310 309 309 309 310 310 310 310 311 311 310 310 310 310 310 310 311 311 312 308 308 312 313 313
341 339 339 338 336 333 335 339 339 338 338 334 326 323 319 315 312 311 310 310 309 310 310 310 311 311 311 310 310 310 311 310 310 309 309 310 308 309 309 305 305 305 310
342 340 340 339 337 334 337 338 338 338 336 331 326 324 317 313 311 310 310 310 310 310 311 311 311 311 311 311 310 311 310 310 310 310 309 308 309 308 308 308 308 307 304
340 340 339 339 337 335 337 336 336 334 334 330 327 325 316 312 309 309 310 309 311 311 311 311 311 312 312 311 311 311 310 310 310 309 309 308 308 308 308 307 307 306 306
340 340 339 338 338 336 335 336 335 333 331 330 328 326 318 310 309 308 308 309 311 312 312 312 312 312 312 311 312 312 313 311 309 309 308 308 308 307 306 305 305 305 305
338 338 339 339 338 337 334 335 336 333 328 324 320 322 322 314 308 308 308 308 310 311 312 312 313 313 312 311 310 311 312 312 312 309 308 308 307 307 306 305 304 304 304
336 337 337 338 338 337 334 333 332 331 324 323 321 321 322 320 309 309 306 306 307 308 308 309 310 312 312 311 310 310 310 311 312 313 309 308 307 307 306 305 304 303 303
334 336 335 335 336 335 333 332 332 331 328 322 322 319 316 317 312 315 310 308 307 307 307 308 309 310 311 311 312 311 310 310 310 312 313 311 307 305 305 305 304 303 303
334 335 335 335 335 334 332 331 331 327 322 317 313 312 314 315 316 314 310 309 310 310 309 308 307 309 310 311 311 311 311 312 311 311 311 310 311 309 306 305 304 304 302

GFSSE_925_thetae_117.txt.gz
Theta_e
341 342 349 350 352 352 351 350 346 348 349 350 349 348 347 344 341 342 345 346 344 346 343 340 340 341 343 344 346 346 347 347 347 345 343 345 346 348 344 345 347 348 346
337 347 351 351 352 351 351 349 346 348 349 349 347 346 346 344 342 342 344 345 345 343 341 340 339 339 340 341 344 345 345 344 344 345 346 346 345 346 347 344 346 348 347
335 348 352 349 351 351 351 349 347 349 348 348 346 344 342 346 343 342 344 345 344 341 339 339 339 339 339 340 341 341 341 343 343 343 344 345 347 347 347 346 345 346 347
341 348 351 349 349 350 350 350 349 348 348 347 345 343 340 344 344 342 344 345 343 341 339 338 338 338 339 340 340 339 338 341 342 343 345 344 345 346 347 346 346 346 346
345 348 351 349 348 349 350 349 348 348 348 346 344 342 340 339 346 344 343 344 342 340 339 337 336 336 338 339 340 339 340 338 339 342 342 343 344 345 345 346 345 344 343
345 346 350 347 347 348 350 349 348 347 347 344 342 340 339 338 345 343 343 343 342 339 337 336 334 334 334 336 337 338 341 337 338 338 341 342 343 344 344 343 342 338 337
347 347 350 346 349 349 348 348 348 347 345 343 341 339 338 339 345 342 341 342 341 339 337 335 333 332 331 332 334 336 337 337 337 336 339 340 341 342 343 342 342 343 339
346 348 349 347 347 346 348 348 347 346 344 341 339 338 339 345 342 342 341 341 340 338 335 333 332 330 330 331 332 333 334 334 334 335 336 338 338 340 342 342 341 341 341
342 342 345 347 346 346 347 346 346 344 341 340 338 339 343 343 340 342 341 340 340 335 332 331 330 329 329 329 325 329 329 330 331 333 333 334 336 337 339 339 340 340 340
341 341 345 347 346 346 346 344 343 340 340 339 338 339 342 340 340 340 337 339 338 334 330 328 328 328 328 326 322 325 327 328 329 329 329 330 332 333 335 336 337 337 338
340 343 345 346 345 344 343 344 341 339 337 336 339 340 338 339 338 338 336 337 334 331 328 327 327 326 324 318 324 325 327 326 327 327 327 328 329 329 329 330 331 332 334
340 341 344 346 344 342 342 343 339 337 334 339 340 339 340 337 336 336 334 335 332 328 327 327 319 320 321 323 326 327 325 326 325 325 326 326 326 326 325 325 325 326 326
343 343 345 346 345 341 338 338 332 331 334 340 340 337 334 335 332 331 330 332 329 326 322 319 322 323 322 323 326 325 324 325 324 323 324 324 324 324 324 323 323 323 323
340 340 344 343 343 337 336 332 330 331 340 340 339 336 334 332 328 328 327 329 327 319 315 315 319 322 322 322 323 322 323 324 321 321 322 323 324 323 323 322 321 321 321
342 343 343 342 339 336 333 330 331 340 341 339 339 335 333 329 326 325 324 325 323 314 312 314 317 319 320 321 320 319 320 320 319 320 321 321 322 322 322 321 320 319 319
341 342 341 340 340 335 331 330 337 342 339 338 337 335 330 327 325 324 323 319 317 312 312 313 313 314 315 316 316 316 316 317 317 318 318 319 319 319 319 319 319 318 317
342 340 341 340 337 335 330 332 339 341 340 339 337 333 327 325 323 322 320 315 312 312 312 312 313 313 313 313 313 313 313 314 316 317 316 315 316 316 316 316 316 316 316
341 341 340 341 336 335 331 338 339 341 339 338 336 329 324 322 321 319 316 312 312 311 312 312 312 313 313 313 312 312 312 312 312 313 314 314 313 312 309 313 315 315 314
341 341 340 340 337 336 332 338 338 339 338 337 333 325 323 320 318 315 313 312 311 311 312 312 312 312 313 312 312 312 312 312 312 311 311 312 311 312 310 305 305 307 311
342 340 340 339 337 336 333 338 337 338 337 336 329 324 321 318 314 312 312 312 311 312 312 312 313 312 312 312 311 312 312 312 312 312 311 311 311 311 311 311 310 308 305
339 338 329 339 338 336 336 338 338 338 336 334 328 325 319 315 313 312 312 311 312 312 312 312 313 313 313 312 312 313 312 312 312 312 311 310 311 310 311 310 309 308 308
340 339 338 339 338 337 338 337 337 336 336 332 328 325 317 314 312 312 311 311 312 312 313 313 313 313 313 313 313 313 315 312 311 311 311 311 310 309 309 308 308 307 307
338 340 339 339 339 337 338 336 334 335 333 329 329 326 317 312 310 310 311 311 311 313 313 313 314 314 314 313 313 313 314 314 314 311 310 310 309 309 309 308 307 306 306
333 339 339 338 339 338 337 332 333 329 327 326 324 322 317 311 309 309 309 310 311 312 313 313 313 314 314 313 312 311 311 312 315 316 311 310 310 309 309 308 307 306 305
330 335 339 336 337 337 335 332 333 331 329 327 323 321 318 311 308 308 308 308 308 308 309 309 310 310 311 312 313 312 311 311 311 312 315 312 310 309 308 307 306 306 305
331 336 337 330 328 334 332 331 331 330 329 324 319 317 316 312 308 308 309 309 308 308 308 308 309 309 309 311 311 312 312 312 312 312 313 312 312 311 308 307 306 306 305

GFSSE_925_thetae_120.txt.gz
Theta_e
348 345 350 348 353 350 349 352 352 351 350 349 348 347 342 341 345 345 346 345 345 342 341 340 341 342 343 344 346 347 347 347 346 344 343 343 345 347 347 346 345 343 344
344 346 350 346 352 352 352 351 349 351 349 348 348 347 343 341 343 344 345 345 342 340 340 339 339 341 342 344 345 345 346 343 343 345 344 344 345 346 347 345 344 344 345
342 350 350 349 350 351 350 347 348 349 348 347 345 345 344 342 342 345 345 343 341 340 339 338 339 339 340 342 340 343 344 342 343 344 345 346 346 346 346 345 345 343 344
347 352 352 349 349 349 348 346 348 348 348 347 344 342 346 343 343 344 345 342 340 339 338 338 338 339 339 339 341 339 342 341 341 342 343 344 345 346 346 345 345 344 344
348 351 352 349 349 349 349 348 348 348 348 346 344 340 342 344 344 344 344 342 339 338 337 337 337 339 337 341 342 338 338 341 341 341 342 343 344 345 343 342 341 340 340
347 350 349 349 349 349 349 349 348 347 347 345 343 340 338 344 345 343 343 342 339 337 336 335 335 336 335 339 340 337 335 336 339 340 341 341 343 343 344 341 337 339 338
348 352 347 347 349 348 349 348 347 347 346 344 341 339 337 342 343 343 342 341 339 337 335 333 332 333 332 336 336 335 334 333 335 337 339 340 340 343 343 342 342 339 338
350 351 348 346 348 348 348 348 347 347 345 342 339 337 338 344 343 342 340 341 338 336 334 332 330 330 328 333 332 330 335 335 333 334 336 338 339 341 342 342 341 341 341
348 350 349 348 347 346 347 347 346 345 343 340 338 338 343 342 342 339 340 340 336 334 333 331 330 328 324 330 328 328 329 330 331 331 332 333 337 338 339 338 339 339 340
348 348 347 348 347 346 346 344 345 343 340 338 338 340 342 339 340 338 340 338 334 332 330 329 328 324 319 325 327 328 329 327 328 328 329 330 333 334 335 335 336 337 337
341 344 344 345 346 346 345 344 342 340 339 335 338 341 339 338 338 338 336 336 332 330 329 327 324 313 323 325 326 326 326 326 326 326 327 328 328 329 329 329 330 332 333
341 343 346 346 345 345 344 343 341 340 335 336 340 337 339 337 338 335 335 333 331 329 325 320 316 322 325 326 325 326 325 325 324 325 325 326 326 326 325 325 325 326 326
342 345 346 345 344 344 344 342 341 338 336 338 339 339 338 336 337 333 334 331 326 320 315 322 323 321 321 325 325 325 324 323 324 324 324 325 325 324 324 324 324 323 323
343 345 345 344 343 343 344 340 336 333 334 339 338 339 334 333 332 329 330 330 323 319 315 319 322 322 324 324 323 325 322 321 322 323 324 324 324 323 323 322 321 321 321
341 342 344 343 344 342 336 333 330 332 336 337 339 335 334 329 329 327 329 328 322 315 314 318 321 321 321 320 320 321 320 320 321 322 322 322 323 322 322 321 320 320 319
341 340 339 342 342 340 334 331 336 339 338 338 338 334 332 328 326 325 326 325 318 312 313 316 317 317 318 317 316 317 318 318 318 320 320 320 320 320 320 319 319 318 318
342 343 341 341 340 337 333 330 339 339 339 338 337 334 330 327 325 323 322 319 313 312 313 313 313 313 313 314 314 314 316 318 318 316 317 317 317 317 317 317 317 317 316
341 341 339 334 333 338 332 333 339 339 338 338 336 334 327 325 324 322 318 315 312 312 312 313 313 313 312 312 312 312 313 314 316 315 314 313 311 309 312 316 316 315 315
339 341 340 336 336 337 332 337 337 339 339 338 336 329 325 323 321 320 315 312 311 312 312 312 312 313 313 312 312 312 312 312 312 313 313 313 313 311 306 305 306 309 313
338 340 340 340 340 337 335 338 339 338 339 337 332 326 323 321 319 316 313 312 311 312 312 312 312 312 312 312 312 312 312 312 311 311 311 311 310 310 310 310 310 307 307
341 341 340 339 338 337 337 338 339 338 338 337 329 324 322 319 316 313 312 311 311 311 312 312 312 312 312 312 311 312 312 312 312 312 311 311 311 310 310 310 310 308 308
338 338 338 338 336 331 336 337 337 338 337 335 327 324 320 316 313 312 312 311 312 312 312 312 313 313 313 312 312 312 310 311 311 312 312 311 310 310 309 309 308 308 307
335 340 337 336 330 327 330 337 337 337 335 330 326 321 317 314 312 312 312 311 312 312 313 313 313 313 313 313 312 313 311 311 311 310 311 311 310 310 309 308 307 307 306
330 336 333 327 328 330 336 336 335 334 330 329 327 320 315 314 312 312 311 311 312 313 314 314 314 314 314 313 309 309 310 311 310 311 311 310 310 309 309 308 307 306 306
324 335 336 335 329 329 327 334 333 331 330 328 326 321 316 311 310 311 310 310 311 313 314 314 313 313 312 312 313 312 310 311 310 310 309 311 310 309 309 308 308 306 306
334 335 334 331 328 325 327 327 328 330 330 328 326 322 317 310 309 309 309 310 311 311 310 310 309 309 309 308 309 310 312 312 312 311 309 310 310 310 309 308 307 306 306

GFSSE_925_thetae_126.txt.gz
Theta_e
343 343 349 349 352 351 350 351 351 350 348 343 342 344 347 346 346 344 341 340 338 340 340 342 345 344 346 347 347 347 347 346 346 345 345 345 344 346 344 344 345 346 347
341 341 350 349 350 351 350 351 351 349 348 342 342 343 346 346 346 343 341 340 339 339 340 341 341 343 345 347 347 346 346 346 345 344 344 344 343 344 345 342 344 345 346
343 341 350 350 349 350 351 351 349 348 348 343 342 342 343 345 343 342 341 339 339 339 340 342 344 345 345 345 345 346 347 346 344 344 344 343 343 344 345 342 343 345 346
349 345 352 350 349 350 350 349 347 347 347 344 342 342 345 346 344 342 340 339 338 338 339 342 343 343 344 344 345 345 344 343 342 341 340 340 341 342 344 343 344 344 345
351 347 351 348 349 350 349 347 346 347 346 344 343 342 345 345 343 341 340 339 338 338 338 340 343 342 343 341 342 342 341 341 341 341 339 340 339 340 340 341 341 342 342
351 347 350 348 349 348 348 347 346 346 344 344 344 341 343 345 343 341 339 337 336 337 338 340 339 340 341 341 339 338 339 340 341 341 340 341 341 342 340 338 336 339 340
351 346 351 348 348 347 346 346 347 345 344 342 343 342 345 343 343 340 339 337 334 334 338 340 339 336 339 339 338 338 338 339 339 339 340 340 340 341 341 341 338 337 338
350 347 351 348 348 346 345 347 346 346 345 340 339 344 345 342 343 339 338 337 334 331 335 338 336 338 338 338 335 332 335 336 337 338 338 339 339 339 340 340 339 338 336
345 347 349 348 347 346 347 346 346 345 344 340 337 342 344 341 342 340 338 336 333 330 331 336 335 336 338 336 331 330 330 333 334 333 334 336 338 339 338 338 338 337 338
345 345 348 348 347 345 346 346 346 344 343 338 336 340 343 341 341 339 338 335 333 329 328 334 334 333 334 332 327 328 329 329 330 330 330 331 334 335 335 335 335 335 336
337 340 345 345 346 346 345 345 345 343 340 334 335 342 341 340 340 337 334 334 332 327 325 330 332 331 332 327 325 324 325 326 328 327 328 328 329 329 329 329 329 329 330
336 330 327 343 344 345 345 344 343 342 336 333 341 341 339 339 338 335 332 331 327 324 320 326 329 326 326 324 322 322 324 324 325 326 326 327 327 326 326 326 326 326 326
332 325 323 331 342 343 345 344 342 339 333 335 339 338 337 338 336 333 330 326 314 316 325 325 325 325 325 323 320 322 324 324 325 326 326 326 326 326 325 325 325 325 324
327 322 323 340 342 341 341 343 340 337 333 338 338 338 337 336 334 331 326 312 311 323 323 322 321 322 324 323 319 321 323 324 324 324 325 325 325 324 324 324 323 322 322
327 325 329 334 337 341 339 340 340 335 333 337 337 338 337 336 333 330 324 315 319 320 321 322 323 324 324 322 319 319 322 323 323 324 324 324 324 323 323 322 322 321 320
328 334 335 330 328 339 340 340 339 336 331 337 339 338 336 335 332 327 318 316 320 321 321 321 321 324 323 321 319 319 321 322 322 322 322 322 322 322 322 321 320 320 319
332 337 337 337 337 336 338 339 337 333 333 338 338 337 336 335 328 326 317 312 315 319 320 318 317 323 322 320 319 319 319 320 320 321 321 320 320 320 320 320 319 319 318
338 338 337 329 331 335 331 335 335 333 335 338 337 336 335 332 326 328 320 315 313 316 319 315 319 322 320 319 318 318 316 318 318 319 318 317 317 318 317 318 318 318 317
336 338 337 334 336 335 336 335 336 335 333 336 338 333 333 329 326 328 323 316 312 315 315 314 314 317 318 318 317 317 316 314 314 314 312 310 311 314 314 315 317 316 316
333 338 336 332 335 337 336 334 335 335 332 335 336 333 328 328 326 328 319 312 312 314 313 312 313 312 314 317 317 317 316 314 314 313 312 312 310 306 307 307 311 313 315
333 337 337 337 337 336 335 335 336 335 334 335 334 331 327 324 325 322 318 313 311 312 312 312 312 311 311 311 310 312 315 315 314 313 313 312 312 310 309 308 308 308 312
327 336 335 334 332 333 335 334 335 335 335 335 326 325 325 324 321 320 318 313 311 312 312 312 312 311 311 311 311 310 307 309 310 311 311 311 310 310 309 309 308 308 308
323 333 333 332 333 333 333 334 334 334 332 326 329 327 323 318 317 316 314 311 311 312 312 312 312 312 310 311 311 311 307 309 308 309 310 310 310 310 310 309 308 308 308
322 333 332 333 333 333 332 333 332 331 327 322 319 318 319 317 314 313 312 311 311 311 311 312 312 312 311 312 311 311 311 311 309 309 309 310 310 310 310 309 308 308 307
326 331 332 331 329 327 328 328 328 326 326 325 324 320 319 315 312 311 311 311 311 311 311 312 312 312 312 311 311 310 310 310 309 308 308 308 309 308 309 309 308 307 307
330 329 330 328 324 324 325 329 327 328 325 316 314 314 312 313 312 312 311 311 311 312 313 313 313 312 312 311 310 311 311 311 310 309 307 307 308 309 308 308 307 306 305

GFSSE_925_thetae_129.txt.gz
Theta_e
338 347 348 352 351 350 351 351 351 347 343 345 346 347 347 347 343 340 339 341 341 345 346 347 347 348 348 348 347 347 347 346 346 345 345 344 343 346 346 345 345 346 346
340 347 348 352 351 351 351 351 350 347 343 344 346 347 346 346 342 340 339 339 341 340 344 344 344 346 347 346 346 346 346 345 345 342 342 343 343 344 345 344 345 346 346
338 348 348 352 351 350 351 351 350 347 343 343 344 347 346 344 341 340 339 339 339 341 342 345 345 345 345 346 346 345 346 345 343 341 342 343 344 344 345 343 344 345 346
337 348 349 350 349 348 351 350 349 347 343 342 342 345 346 343 341 340 339 339 339 342 343 344 345 344 345 345 343 344 344 340 340 339 339 339 342 343 344 344 344 344 344
340 349 350 349 349 348 350 348 347 347 343 342 342 346 346 343 341 340 339 338 338 341 342 343 343 343 344 344 343 344 342 339 338 338 337 338 339 340 342 342 342 343 343
342 349 351 348 348 350 349 349 347 347 344 343 342 346 346 343 340 339 338 338 338 340 341 341 342 341 341 342 342 342 341 340 340 341 341 341 340 339 339 340 339 340 341
348 345 351 347 348 348 349 348 347 347 344 343 341 344 345 343 340 339 337 337 338 338 338 339 341 340 340 341 339 339 339 339 339 339 339 339 339 341 340 337 337 338 341
349 342 349 347 347 348 349 348 347 346 344 344 340 343 344 343 340 339 336 335 337 339 338 338 340 339 338 339 337 337 337 338 338 338 338 338 338 339 340 340 337 335 337
349 342 349 346 346 346 346 347 346 345 343 343 342 345 344 342 340 339 336 333 334 339 338 339 339 338 336 335 334 335 335 334 334 336 337 336 337 338 338 337 337 337 336
347 343 345 345 344 344 344 346 346 344 342 339 341 344 341 341 339 339 336 333 331 337 337 337 338 336 335 333 329 331 332 331 331 331 334 334 335 334 334 334 334 334 334
343 342 342 334 339 341 342 344 345 344 341 336 337 343 341 340 339 338 334 333 329 336 336 335 336 334 332 331 328 329 329 328 328 330 329 329 330 330 329 329 329 328 328
340 340 338 336 334 331 341 342 343 342 340 334 337 342 341 340 338 335 333 332 328 333 334 333 334 329 325 324 325 326 327 325 326 327 327 328 328 327 327 327 327 326 326
339 336 333 337 332 324 331 340 341 341 337 334 339 341 340 339 337 333 331 331 326 330 332 331 329 325 323 321 322 323 324 325 326 326 326 327 327 326 326 326 325 324 324
331 332 327 326 323 326 328 339 340 340 333 334 341 340 339 338 335 330 327 324 323 329 329 325 325 323 319 320 321 323 324 325 325 325 325 325 326 325 325 324 323 323 322
329 327 327 326 329 329 336 338 338 338 331 337 339 338 339 337 333 328 322 315 323 326 325 322 324 322 320 320 321 322 323 324 324 324 324 324 324 324 323 323 322 321 321
328 325 328 326 331 333 333 337 337 337 330 338 338 337 337 335 331 327 315 314 324 322 322 322 323 323 320 320 321 322 322 323 323 323 323 323 323 322 322 322 321 320 320
327 326 330 329 331 328 330 334 334 336 334 339 338 337 336 335 331 327 314 321 320 321 321 322 323 323 320 320 321 321 321 322 322 321 321 321 321 321 321 321 320 319 319
324 329 330 332 329 324 327 324 326 334 333 337 337 337 336 334 331 324 316 320 320 320 320 319 324 322 320 320 320 320 320 320 320 320 320 319 318 318 319 319 319 319 318
324 332 334 331 330 326 325 327 325 333 334 337 337 337 336 334 329 318 314 316 316 319 316 317 323 321 320 320 319 319 318 318 318 317 316 316 316 316 317 318 317 317 317
328 335 335 334 334 332 330 327 325 329 333 334 336 336 335 335 327 320 314 313 313 316 315 319 322 320 319 319 318 318 318 317 315 313 310 310 310 310 310 314 314 316 316
332 335 335 334 336 334 331 331 335 334 335 334 335 335 333 334 328 325 321 315 313 315 314 319 320 318 318 317 317 315 315 316 315 313 311 311 310 307 307 307 309 312 313
328 333 335 333 332 334 334 331 333 334 334 333 334 329 328 332 327 328 323 313 312 315 312 312 315 315 315 316 315 312 307 311 313 313 313 312 311 309 309 308 308 308 308
325 332 333 332 333 334 334 334 332 332 331 329 325 325 322 324 325 326 321 312 311 313 312 311 311 312 309 310 312 310 307 308 307 309 311 311 311 310 309 309 309 308 308
321 331 332 331 332 332 333 333 333 330 324 322 321 323 322 322 322 323 311 313 311 311 312 312 311 311 311 310 310 311 311 310 308 308 308 309 310 310 310 309 309 308 308
325 327 327 331 331 332 332 332 331 326 326 326 325 325 326 321 319 317 311 311 311 311 312 312 311 311 311 311 311 309 309 309 309 308 308 308 308 308 309 309 309 308 308
326 327 326 325 325 326 328 329 330 327 322 319 316 316 317 319 315 311 310 310 311 311 311 311 311 311 311 311 310 311 311 310 309 309 307 308 308 308 307 307 308 307 307

GFSSE_925_thetae_132.txt.gz
Theta_e
341 347 352 350 351 349 353 350 346 345 347 347 348 347 344 342 340 341 344 346 347 347 348 348 348 348 348 348 347 347 347 345 345 345 345 344 345 346 347 345 345 345 344
338 346 350 350 350 349 352 351 347 345 345 347 348 347 344 342 340 339 341 343 345 346 347 347 347 347 347 347 347 347 346 344 344 342 342 343 344 344 346 344 344 345 345
335 346 350 350 350 350 352 351 347 344 345 347 347 346 344 341 340 339 341 341 344 345 346 346 346 346 347 345 344 345 344 343 342 342 342 343 344 345 345 342 343 345 346
335 347 351 350 351 346 351 350 347 344 344 347 347 347 343 340 340 339 339 341 343 344 345 345 344 344 343 342 343 343 341 339 338 337 339 341 342 344 344 344 344 344 343
338 346 349 350 349 344 351 350 347 344 343 345 347 346 343 340 339 339 339 341 343 343 344 343 343 342 342 342 342 342 338 336 335 336 336 338 340 342 342 342 342 342 342
341 346 346 350 348 347 350 349 348 345 343 343 345 345 342 340 339 339 338 339 342 342 342 342 341 342 341 341 342 341 339 340 340 340 340 338 337 339 340 341 341 340 341
342 347 348 347 347 345 349 348 348 345 343 343 346 344 343 340 339 339 338 338 341 338 341 341 341 341 343 342 343 340 339 338 338 339 339 339 339 338 336 339 339 340 340
335 345 348 346 345 345 349 348 347 346 344 341 345 344 343 340 339 338 338 338 337 338 340 340 339 339 341 341 339 338 338 337 338 338 338 338 337 339 338 337 337 334 338
342 346 347 346 344 344 347 347 347 346 344 341 342 344 342 339 339 337 336 338 339 338 340 340 338 338 339 337 337 337 337 337 336 336 336 336 336 336 337 338 337 336 335
349 347 348 346 344 343 343 344 343 342 344 340 341 343 340 340 338 337 334 337 339 339 340 338 336 337 336 335 334 332 333 334 333 333 333 332 333 333 333 331 332 333 334
349 346 344 343 341 341 340 341 343 342 341 341 340 343 339 340 338 337 332 334 338 337 338 336 335 334 331 329 331 330 330 330 330 329 329 330 330 329 328 328 327 327 327
341 343 342 339 338 339 335 332 335 341 341 337 340 342 339 339 337 334 332 331 337 336 337 335 334 329 325 327 328 328 327 327 327 328 328 328 328 327 327 327 326 326 326
339 341 339 340 335 327 331 332 328 328 340 334 338 341 340 339 337 333 332 330 336 334 336 332 327 324 324 326 326 325 325 325 326 327 327 327 327 326 326 325 325 324 324
334 337 338 333 331 327 330 328 327 327 339 334 338 341 340 338 336 332 331 327 333 330 333 327 323 321 322 323 323 324 325 325 326 325 326 326 326 325 325 324 323 322 321
328 331 335 328 329 328 326 326 329 328 338 331 338 341 340 338 334 331 330 325 330 329 327 324 322 320 321 322 323 324 324 324 324 325 325 325 324 324 324 323 322 321 321
321 327 326 327 326 332 329 333 337 336 337 332 338 340 339 338 334 329 327 324 329 327 325 324 321 319 321 321 323 323 324 324 323 323 323 323 323 323 323 322 321 320 320
319 323 326 327 326 331 329 330 333 335 336 330 338 339 338 337 332 327 321 323 327 324 322 323 321 319 320 322 322 322 323 323 322 323 322 321 321 321 321 321 320 320 319
318 324 326 327 328 329 328 330 329 328 332 332 336 338 338 336 331 326 315 323 323 321 322 322 322 320 320 321 321 322 321 321 321 321 320 320 319 319 319 320 320 319 318
317 322 326 328 330 329 328 327 326 329 330 333 334 337 337 335 331 326 315 322 320 320 321 323 322 320 320 321 321 321 321 320 320 319 318 317 318 318 318 318 318 318 318
318 329 328 328 331 327 326 328 326 326 329 333 332 336 336 335 332 327 318 321 318 319 319 323 322 320 320 320 320 319 319 319 318 317 316 315 315 316 316 314 315 316 316
322 330 333 332 331 328 327 329 326 328 332 333 333 335 335 334 332 325 318 318 316 318 316 322 321 319 319 319 318 316 316 316 316 314 311 311 311 309 310 312 311 312 311
321 329 334 333 331 330 329 328 328 328 331 332 333 333 331 332 330 325 314 315 314 315 316 320 321 318 317 317 315 313 309 312 314 313 312 311 310 308 308 307 308 309 309
321 328 333 334 334 333 332 331 331 332 333 331 331 329 327 328 330 325 319 314 313 314 315 320 321 318 316 316 315 310 305 308 308 311 313 312 311 310 308 309 308 308 308
321 328 328 331 333 333 333 331 331 330 326 326 327 326 324 323 324 327 325 320 312 314 313 318 319 317 317 314 312 310 310 309 308 308 308 310 311 311 310 309 309 309 308
324 325 327 328 328 329 332 330 330 327 327 328 327 325 324 321 319 327 326 319 310 311 312 312 314 314 315 315 311 309 309 309 309 308 308 307 308 309 309 309 309 309 308
324 324 325 325 326 329 330 330 328 327 325 324 322 322 323 324 321 320 318 312 310 309 311 311 311 311 310 310 310 310 309 309 309 308 307 307 308 308 308 307 307 308 308

GFSSE_925_thetae_135.txt.gz
Theta_e
342 346 353 350 350 351 349 347 346 344 342 341 342 342 341 340 343 347 347 348 348 348 349 349 349 348 349 348 348 347 346 345 345 345 345 345 345 346 347 345 345 345 345
342 346 354 349 349 351 350 347 346 347 346 348 345 343 342 341 342 344 346 347 347 348 348 348 348 348 348 347 346 346 345 345 344 343 344 344 343 344 346 344 344 345 344
341 346 353 349 347 351 350 347 346 346 347 347 347 344 342 340 340 342 344 345 346 347 347 347 347 348 346 345 344 344 343 342 341 342 344 344 345 344 345 342 342 343 345
342 348 353 350 344 350 350 347 345 345 347 347 347 344 342 341 340 341 342 345 345 346 345 345 345 345 344 342 342 342 339 337 339 341 342 342 342 344 344 344 344 342 342
343 349 353 350 345 350 350 348 345 344 347 347 346 343 341 341 340 339 343 344 345 344 344 344 343 343 342 341 343 341 339 334 335 339 340 342 342 343 343 343 343 343 339
345 350 351 349 346 345 349 348 344 343 346 347 345 342 340 339 340 339 343 343 343 343 343 343 342 341 341 341 342 341 339 339 340 340 338 338 340 342 342 342 341 341 341
345 347 349 348 346 342 349 348 346 343 342 345 344 342 339 339 339 339 341 342 342 342 342 342 342 340 341 341 341 340 339 339 340 340 341 339 337 339 339 340 340 341 341
345 347 348 347 346 344 346 348 347 344 342 342 344 342 340 338 338 338 339 339 337 339 341 341 338 340 340 341 339 337 337 339 340 340 339 339 339 338 338 337 338 338 339
346 349 348 347 345 344 344 347 346 344 341 345 344 342 340 338 338 338 337 335 335 338 340 339 338 340 340 340 337 337 337 337 337 337 336 336 335 336 337 337 336 335 336
344 346 348 347 345 344 343 344 345 345 339 340 344 343 340 338 337 337 337 337 337 340 339 337 336 338 339 337 336 335 334 334 333 334 334 332 331 332 332 331 333 333 333
345 342 342 343 343 343 343 343 343 343 343 335 342 342 339 339 337 335 337 338 340 339 338 334 335 336 335 333 333 333 332 331 331 330 329 329 329 329 328 328 328 327 327
340 342 342 341 341 342 341 340 342 342 342 342 342 342 340 340 337 332 335 338 338 338 336 334 333 330 330 331 330 330 329 329 328 328 328 328 328 328 327 327 326 326 326
339 339 338 339 339 339 339 338 338 336 329 336 336 340 339 340 336 332 333 338 336 336 335 333 329 326 327 328 328 328 327 327 327 327 327 327 327 327 326 325 324 324 324
331 334 339 339 337 331 328 332 337 337 331 328 335 336 339 339 336 333 331 337 335 334 332 327 324 325 327 326 326 326 326 326 326 326 326 326 326 326 325 324 323 323 322
325 329 333 338 337 331 330 329 328 328 328 329 328 334 339 338 335 331 329 335 333 333 329 324 323 324 325 325 325 325 325 326 326 325 325 325 325 325 324 323 322 321 321
317 319 327 332 335 328 327 327 330 331 332 326 330 331 338 337 334 332 328 334 330 330 326 322 320 323 324 324 324 324 324 325 325 325 324 324 324 324 323 322 322 321 320
317 317 321 327 327 327 332 333 334 333 334 332 334 331 338 338 333 330 327 330 328 328 325 321 320 321 322 323 323 323 323 323 323 323 324 323 322 322 322 322 321 320 319
316 317 321 325 327 331 329 329 332 332 331 336 335 331 335 337 333 329 325 327 329 325 323 321 320 322 322 322 322 322 322 322 322 321 321 321 321 321 320 320 320 320 319
316 317 320 326 329 329 328 328 328 330 328 334 330 328 332 336 333 327 323 327 327 324 323 321 320 321 321 321 321 321 321 321 320 320 319 319 319 319 320 319 319 319 319
317 317 321 326 329 330 328 327 328 329 326 329 328 331 330 335 331 327 319 326 325 321 321 321 320 320 321 320 319 319 319 319 319 318 317 317 317 316 315 316 317 317 317
318 322 328 327 329 330 327 327 327 326 326 331 331 331 329 334 330 325 318 323 321 321 321 321 320 319 318 317 317 315 316 316 316 316 315 314 313 313 313 312 314 315 314
319 325 330 328 330 330 327 328 326 326 330 331 331 332 333 333 331 327 317 321 319 319 321 321 319 318 316 317 317 316 318 315 314 313 312 312 311 309 309 311 311 312 310
322 326 330 330 329 331 328 328 329 330 329 330 330 330 331 331 330 327 319 319 317 318 319 321 320 318 317 316 315 314 315 316 314 312 312 311 310 309 308 308 308 308 309
325 328 329 330 332 332 331 329 329 329 327 328 329 330 329 330 329 325 316 316 314 315 316 319 321 319 317 316 313 310 310 311 314 312 310 312 312 311 310 308 309 309 308
323 324 325 328 326 329 331 330 330 329 328 325 327 329 327 325 328 325 318 315 314 312 314 317 319 318 317 316 315 310 309 309 309 311 310 307 309 310 310 309 309 309 309
323 323 323 326 328 329 330 330 330 329 326 324 326 325 323 324 324 324 325 322 318 312 312 316 319 319 317 315 313 311 310 311 310 310 310 307 308 307 307 308 307 307 308

GFSSE_925_thetae_138.txt.gz
Theta_e
345 350 354 349 349 348 347 346 346 345 345 344 343 343 344 345 347 348 348 348 348 349 349 350 349 350 349 348 347 347 346 346 346 345 344 345 345 346 347 345 345 346 347
343 351 354 348 351 349 347 347 345 343 342 342 343 341 342 344 347 347 348 348 348 348 349 348 349 348 349 347 347 346 346 345 345 345 344 344 344 344 345 343 343 345 346
343 352 354 347 350 350 348 347 347 347 347 346 344 342 341 343 345 347 347 347 347 347 348 348 346 347 346 345 345 345 344 343 343 343 342 343 345 345 344 341 342 342 344
342 351 354 347 347 350 347 346 347 348 348 347 345 343 341 341 343 345 346 346 347 347 346 346 346 345 345 344 343 343 343 342 342 341 340 340 343 345 345 343 343 343 341
343 350 353 348 346 350 349 345 346 348 347 347 344 343 341 340 342 344 346 346 345 345 345 345 345 345 343 343 342 341 341 338 338 338 339 341 342 343 343 344 342 341 340
343 348 352 348 344 348 349 348 345 347 348 347 343 343 341 341 340 344 345 345 344 344 344 344 343 343 343 341 341 342 341 340 339 337 337 340 342 343 342 342 341 340 341
342 345 353 347 344 346 349 348 345 346 347 347 342 340 340 340 340 344 344 343 343 343 343 343 343 341 342 342 342 339 340 340 341 340 337 336 339 340 341 341 341 341 341
342 345 351 348 345 342 348 348 345 343 346 346 342 340 339 339 339 342 343 343 342 342 342 342 342 342 341 342 339 337 339 339 338 338 339 338 338 338 338 339 338 338 339
342 344 350 350 347 343 343 347 345 340 339 346 343 340 339 339 338 339 339 340 340 341 341 339 338 340 340 340 336 337 338 337 336 334 335 336 335 336 337 336 336 336 335
343 345 349 348 346 347 345 343 345 341 336 344 342 341 338 338 338 337 334 338 337 341 340 339 339 340 340 337 337 335 334 335 334 332 331 331 331 331 332 332 332 332 332
346 344 348 347 347 346 347 346 343 343 337 345 342 340 339 338 337 336 338 336 340 340 339 337 338 337 337 335 334 332 333 333 330 329 329 329 330 329 329 328 328 328 328
343 345 343 344 345 345 343 343 344 342 339 333 343 342 340 338 337 335 338 337 339 339 338 336 337 334 335 335 332 332 332 330 328 328 328 328 329 328 327 327 327 326 326
342 343 342 344 344 343 340 340 340 340 339 336 339 341 341 339 336 333 338 337 338 336 336 334 332 330 330 331 332 331 329 327 327 327 327 327 327 327 326 326 325 325 325
329 339 343 341 342 342 342 339 338 338 338 337 334 336 339 339 334 331 335 336 335 335 334 331 328 327 327 327 327 328 326 326 326 326 327 327 326 326 325 325 324 323 323
322 327 334 340 340 338 337 336 336 336 335 333 325 326 332 338 334 331 334 336 335 332 331 327 326 326 326 326 326 324 324 325 325 325 326 325 325 325 324 324 323 322 322
321 322 323 329 339 339 336 334 334 333 333 335 329 321 331 335 335 332 332 334 334 332 327 325 323 324 325 324 323 324 324 325 324 324 324 324 324 324 324 323 322 322 321
321 321 321 323 331 335 335 334 335 335 336 332 333 331 331 335 336 331 330 332 331 329 325 323 321 322 323 323 323 323 323 323 323 323 323 323 323 323 323 322 321 321 320
320 320 320 322 327 333 335 336 336 335 334 335 332 332 333 335 335 331 328 330 329 327 325 323 321 322 323 323 322 322 322 322 322 322 322 322 321 320 321 321 321 320 319
320 320 320 322 328 332 334 333 333 332 334 333 334 333 334 336 333 329 327 329 327 326 325 323 322 321 322 322 322 321 321 320 320 319 319 320 321 320 320 319 320 319 319
320 320 320 321 328 332 332 332 331 332 332 334 332 334 333 332 332 327 326 326 325 325 324 324 322 321 321 321 320 320 320 319 318 317 317 317 319 318 318 318 318 317 317
320 321 321 324 328 332 331 331 330 332 331 333 332 330 329 328 330 325 325 324 324 325 324 324 323 322 321 320 319 319 318 317 317 317 316 315 316 316 316 317 316 316 315
321 323 326 329 329 331 331 330 331 331 331 330 330 328 328 329 329 323 322 322 323 324 324 324 322 322 321 318 318 317 318 316 315 314 314 314 314 313 314 314 314 315 313
326 328 329 329 329 331 331 332 330 328 328 330 330 330 328 327 329 322 319 321 321 323 323 323 323 322 320 319 318 317 318 318 316 315 314 313 313 311 311 311 311 312 313
327 329 331 330 330 332 331 332 330 328 326 324 328 329 329 328 329 323 319 320 319 322 323 323 323 322 320 319 317 314 315 316 317 317 314 314 313 313 311 310 310 311 311
325 326 330 331 330 333 332 332 331 329 327 324 328 329 328 328 326 322 317 316 317 319 321 323 323 323 321 319 317 315 314 313 314 314 316 314 312 310 310 310 310 311 311
324 325 326 326 326 328 330 331 329 328 328 325 326 326 325 324 325 324 316 316 314 315 318 320 321 322 322 321 318 317 314 314 313 313 314 314 313 308 308 307 308 307 308

GFSSE_925_thetae_141.txt.gz
Theta_e
348 354 353 349 349 349 349 348 347 348 346 345 345 345 346 345 348 348 348 349 349 350 350 350 350 350 349 348 348 348 348 347 343 342 343 344 344 345 345 345 346 347 347
345 352 353 348 350 348 347 347 347 346 346 344 343 344 345 344 348 348 348 347 348 348 349 349 349 348 348 348 345 346 346 345 343 344 344 344 342 344 345 342 344 347 346
343 353 354 349 349 349 347 347 345 344 344 344 343 342 344 347 347 348 347 346 347 348 348 348 348 348 347 346 345 344 342 341 339 340 340 343 345 344 345 342 342 344 346
343 354 354 348 349 348 347 347 346 347 347 346 344 342 343 345 347 347 346 346 346 347 347 347 347 346 346 344 344 341 340 339 340 340 341 343 344 345 344 343 343 343 344
342 354 354 347 349 348 346 346 347 349 348 347 344 342 341 344 346 347 347 346 346 346 346 345 345 345 344 343 341 337 337 337 338 341 342 341 342 343 343 344 343 341 341
342 352 353 347 349 350 347 346 345 346 347 347 345 343 341 342 344 346 346 345 345 344 344 344 344 344 342 342 342 341 341 338 337 338 339 341 341 342 342 342 341 340 340
342 351 354 348 347 350 348 347 342 345 347 345 345 343 342 341 345 346 345 344 344 344 344 344 344 343 343 342 340 340 340 339 339 338 338 339 340 340 340 341 341 341 339
342 345 351 349 345 346 350 349 342 345 347 345 342 340 341 341 344 344 344 343 343 343 343 342 343 342 342 339 339 339 338 337 337 338 338 338 337 339 339 338 338 338 339
342 343 351 351 347 343 346 348 345 338 346 346 342 340 339 339 343 343 343 342 342 342 342 342 342 341 341 338 338 338 336 334 334 335 335 335 335 336 335 335 335 334 335
344 343 347 350 349 347 345 344 345 338 340 345 341 339 339 338 337 341 341 341 342 342 341 340 341 340 340 336 336 334 334 332 332 331 331 330 332 331 330 330 330 332 332
349 344 347 347 347 348 347 347 343 343 335 344 342 339 338 338 338 338 337 337 341 340 340 340 339 340 337 335 333 334 332 330 330 329 330 330 330 329 329 329 329 328 329
343 346 344 346 345 346 345 343 345 344 339 339 341 340 339 338 337 336 339 336 339 339 338 339 337 336 336 334 333 332 330 329 328 328 328 328 329 328 327 327 327 327 327
339 344 344 344 343 344 344 342 342 343 339 337 338 338 339 338 337 338 338 337 338 337 338 337 336 336 334 333 332 330 328 327 328 328 326 327 327 327 326 326 326 325 325
324 333 344 343 342 342 341 342 340 339 338 333 335 334 335 337 336 335 337 336 337 337 335 332 330 329 329 328 329 328 326 326 326 326 326 326 326 326 325 325 324 324 324
323 324 333 340 342 342 341 339 339 337 336 334 333 330 324 332 331 332 337 336 337 336 332 329 327 327 326 326 327 325 325 325 326 325 324 325 325 325 325 324 324 324 323
322 323 324 327 336 342 339 339 338 338 338 336 334 328 328 324 321 331 333 335 334 332 329 326 325 325 326 325 324 324 325 325 325 324 325 324 324 324 324 324 323 323 323
321 322 322 324 325 335 340 338 337 337 336 338 334 331 324 320 323 331 332 334 334 331 327 324 324 324 324 324 324 324 324 324 324 324 324 324 323 323 323 323 322 322 321
321 321 321 322 323 328 337 336 336 337 337 336 336 333 323 327 333 333 332 334 332 329 325 322 322 323 323 323 323 323 323 323 323 323 322 322 321 322 321 321 321 321 320
322 322 322 322 323 328 333 335 335 335 336 337 335 334 334 329 333 332 331 332 331 326 324 322 322 323 323 323 322 322 322 321 321 321 322 322 321 321 321 320 319 320 320
322 322 322 323 323 328 333 334 334 334 333 335 337 334 333 334 333 332 330 330 328 326 325 323 322 322 322 322 321 321 321 320 319 319 319 320 322 320 318 318 318 318 318
321 321 322 323 323 329 333 333 333 332 333 335 333 334 333 333 332 329 329 328 327 326 325 324 322 321 322 320 320 320 319 319 318 318 317 317 317 317 318 318 318 317 311
322 322 322 323 325 329 333 332 332 332 333 332 333 333 333 331 329 328 327 326 326 326 326 324 322 322 321 320 320 318 319 317 317 316 316 315 316 315 315 315 316 315 314
327 327 327 327 329 331 331 332 331 331 330 331 331 330 331 330 327 326 325 325 326 326 326 325 323 323 321 319 318 318 319 318 316 316 315 315 314 313 313 313 313 313 314
327 329 330 329 330 332 330 331 331 330 329 329 330 330 328 329 328 326 323 323 324 325 325 325 324 323 321 320 319 318 317 317 318 318 315 314 314 313 312 312 311 312 313
326 328 331 330 329 331 329 331 331 328 327 326 328 328 327 327 327 321 320 320 323 324 325 325 324 323 322 321 320 318 316 315 316 317 318 315 314 314 313 312 311 312 312
325 326 327 327 328 332 333 332 331 327 324 322 322 325 325 324 327 322 320 320 320 322 324 325 325 324 323 322 319 318 316 316 314 314 315 316 315 313 311 310 309 308 308